Time,TemperatureF,DewpointF,PressureIn,WindDirection,WindDirectionDegrees,WindSpeedMPH,WindSpeedGustMPH,Humidity,HourlyPrecipIn,Conditions,Clouds,dailyrainin,SoftwareType,DateUTC
2013-01-29 00:02:00,23.2,15.6,29.53,West,270,0.0,3.4,72,0.00,,,0.00,WUHU216HW,2013-01-29 07:02:00,
2013-01-29 00:03:00,23.2,15.6,29.53,SSE,158,2.7,3.4,72,0.00,,,0.00,WUHU216HW,2013-01-29 07:03:00,
2013-01-29 00:07:00,23.4,15.7,29.52,SE,135,0.0,3.8,72,0.00,,,0.00,WUHU216HW,2013-01-29 07:07:00,
2013-01-29 00:09:00,23.4,15.4,29.52,WSW,248,2.2,3.8,71,0.00,,,0.00,WUHU216HW,2013-01-29 07:09:00,
2013-01-29 00:12:00,23.4,15.4,29.52,SSE,158,1.1,3.8,71,0.00,,,0.00,WUHU216HW,2013-01-29 07:12:00,
2013-01-29 00:13:00,23.4,15.4,29.52,SE,135,1.3,3.8,71,0.00,,,0.00,WUHU216HW,2013-01-29 07:13:00,
2013-01-29 00:14:00,23.4,15.4,29.52,SE,135,0.7,3.8,71,0.00,,,0.00,WUHU216HW,2013-01-29 07:14:00,
2013-01-29 00:17:00,23.4,15.4,29.52,ESE,113,2.0,2.2,71,0.00,,,0.00,WUHU216HW,2013-01-29 07:17:00,
2013-01-29 00:18:00,23.6,15.6,29.52,ESE,113,1.6,2.5,71,0.00,,,0.00,WUHU216HW,2013-01-29 07:18:00,
2013-01-29 00:19:00,23.6,15.6,29.52,ESE,113,0.9,2.5,71,0.00,,,0.00,WUHU216HW,2013-01-29 07:19:00,
2013-01-29 00:22:00,23.6,15.6,29.52,South,180,2.5,2.5,71,0.00,,,0.00,WUHU216HW,2013-01-29 07:22:00,
2013-01-29 00:23:00,23.6,15.6,29.52,SE,135,3.6,3.6,71,0.00,,,0.00,WUHU216HW,2013-01-29 07:23:00,
2013-01-29 00:24:00,23.6,15.6,29.52,SE,135,4.0,4.0,71,0.00,,,0.00,WUHU216HW,2013-01-29 07:24:00,
2013-01-29 00:27:00,23.6,15.6,29.52,SE,135,3.8,4.5,71,0.00,,,0.00,WUHU216HW,2013-01-29 07:27:00,
2013-01-29 00:28:00,23.6,15.6,29.52,SE,135,2.9,4.5,71,0.00,,,0.00,WUHU216HW,2013-01-29 07:28:00,
2013-01-29 00:29:00,23.6,15.6,29.52,ESE,113,0.9,4.5,71,0.00,,,0.00,WUHU216HW,2013-01-29 07:29:00,
2013-01-29 00:32:00,23.6,15.6,29.52,ESE,113,1.6,4.5,71,0.00,,,0.00,WUHU216HW,2013-01-29 07:32:00,
2013-01-29 00:34:00,23.6,15.6,29.53,SE,135,0.7,4.5,71,0.00,,,0.00,WUHU216HW,2013-01-29 07:34:00,
2013-01-29 00:38:00,23.6,15.6,29.52,SE,135,1.1,4.0,71,0.00,,,0.00,WUHU216HW,2013-01-29 07:38:00,
2013-01-29 00:39:00,23.4,15.4,29.52,ESE,113,1.3,2.7,71,0.00,,,0.00,WUHU216HW,2013-01-29 07:39:00,
2013-01-29 00:40:00,23.4,15.4,29.52,ESE,113,1.8,2.7,71,0.00,,,0.00,WUHU216HW,2013-01-29 07:40:00,
2013-01-29 00:43:00,23.4,15.7,29.52,NE,45,1.6,2.0,72,0.00,,,0.00,WUHU216HW,2013-01-29 07:43:00,
2013-01-29 00:44:00,23.4,15.7,29.53,NE,45,0.4,2.0,72,0.00,,,0.00,WUHU216HW,2013-01-29 07:44:00,
2013-01-29 00:45:00,23.4,15.7,29.53,ENE,68,1.6,2.0,72,0.00,,,0.00,WUHU216HW,2013-01-29 07:45:00,
2013-01-29 00:48:00,23.4,15.7,29.52,North,0,6.3,6.3,72,0.00,,,0.00,WUHU216HW,2013-01-29 07:48:00,
2013-01-29 00:50:00,23.0,16.0,29.53,North,0,3.8,6.9,74,0.00,,,0.00,WUHU216HW,2013-01-29 07:50:00,
2013-01-29 00:53:00,22.7,16.2,29.52,NE,45,3.1,6.9,76,0.00,,,0.00,WUHU216HW,2013-01-29 07:53:00,
2013-01-29 00:55:00,22.5,16.4,29.52,NE,45,2.5,6.9,77,0.00,,,0.00,WUHU216HW,2013-01-29 07:55:00,
2013-01-29 00:58:00,22.5,16.0,29.52,NW,315,1.8,6.9,76,0.00,,,0.00,WUHU216HW,2013-01-29 07:58:00,
2013-01-29 01:00:00,22.3,16.2,29.52,NNW,338,3.8,4.5,77,0.00,,,0.00,WUHU216HW,2013-01-29 08:00:00,
2013-01-29 01:03:00,22.3,16.5,29.52,North,0,7.2,7.2,78,0.00,,,0.00,WUHU216HW,2013-01-29 08:03:00,
2013-01-29 01:05:00,22.3,16.5,29.52,North,0,5.4,7.2,78,0.00,,,0.00,WUHU216HW,2013-01-29 08:05:00,
2013-01-29 01:08:00,22.3,16.5,29.52,North,0,5.8,7.2,78,0.00,,,0.00,WUHU216HW,2013-01-29 08:08:00,
2013-01-29 01:09:00,22.3,16.5,29.52,NNE,23,5.6,7.2,78,0.00,,,0.00,WUHU216HW,2013-01-29 08:09:00,
2013-01-29 01:10:00,22.3,16.5,29.52,NE,45,4.3,7.2,78,0.00,,,0.00,WUHU216HW,2013-01-29 08:10:00,
2013-01-29 01:13:00,22.3,16.2,29.52,NNW,338,2.5,6.3,77,0.00,,,0.00,WUHU216HW,2013-01-29 08:13:00,
2013-01-29 01:14:00,22.3,16.2,29.52,NW,315,2.9,6.3,77,0.00,,,0.00,WUHU216HW,2013-01-29 08:14:00,
2013-01-29 01:15:00,22.3,16.5,29.52,NNW,338,3.6,6.3,78,0.00,,,0.00,WUHU216HW,2013-01-29 08:15:00,
2013-01-29 01:18:00,22.3,16.2,29.52,NW,315,6.7,6.7,77,0.00,,,0.00,WUHU216HW,2013-01-29 08:18:00,
2013-01-29 01:19:00,22.3,16.2,29.52,NW,315,5.6,6.7,77,0.00,,,0.00,WUHU216HW,2013-01-29 08:19:00,
2013-01-29 01:20:00,22.3,16.2,29.52,WNW,293,1.8,6.7,77,0.00,,,0.00,WUHU216HW,2013-01-29 08:20:00,
2013-01-29 01:21:00,22.5,16.4,29.52,WNW,293,0.2,6.7,77,0.00,,,0.00,WUHU216HW,2013-01-29 08:21:00,
2013-01-29 01:24:00,22.5,16.4,29.52,North,0,1.1,6.7,77,0.00,,,0.00,WUHU216HW,2013-01-29 08:24:00,
2013-01-29 01:26:00,22.7,16.6,29.52,NNW,338,2.2,6.7,77,0.00,,,0.00,WUHU216HW,2013-01-29 08:26:00,
2013-01-29 01:29:00,22.7,16.6,29.52,NNE,23,5.8,5.8,77,0.00,,,0.00,WUHU216HW,2013-01-29 08:29:00,
2013-01-29 01:31:00,22.7,15.9,29.52,North,0,2.5,5.8,75,0.00,,,0.00,WUHU216HW,2013-01-29 08:31:00,
2013-01-29 01:34:00,23.0,16.0,29.52,North,0,4.0,5.8,74,0.00,,,0.00,WUHU216HW,2013-01-29 08:34:00,
2013-01-29 01:36:00,23.4,16.0,29.52,North,0,5.4,6.9,73,0.00,,,0.00,WUHU216HW,2013-01-29 08:36:00,
2013-01-29 01:39:00,24.1,15.8,29.52,NW,315,10.5,13.0,70,0.00,,,0.00,WUHU216HW,2013-01-29 08:39:00,
2013-01-29 01:41:00,24.8,16.0,29.52,NW,315,11.9,13.0,69,0.00,,,0.00,WUHU216HW,2013-01-29 08:41:00,
2013-01-29 01:42:00,25.0,16.2,29.52,NW,315,12.5,13.0,69,0.00,,,0.00,WUHU216HW,2013-01-29 08:42:00,
2013-01-29 01:44:00,25.4,16.2,29.52,NNW,338,11.2,13.4,68,0.00,,,0.00,WUHU216HW,2013-01-29 08:44:00,
2013-01-29 01:46:00,25.6,16.0,29.52,NW,315,11.4,13.4,67,0.00,,,0.00,WUHU216HW,2013-01-29 08:46:00,
2013-01-29 01:47:00,25.7,16.2,29.52,NNW,338,7.6,13.4,67,0.00,,,0.00,WUHU216HW,2013-01-29 08:47:00,
2013-01-29 01:49:00,25.7,16.6,29.52,NW,315,8.7,13.4,68,0.00,,,0.00,WUHU216HW,2013-01-29 08:49:00,
2013-01-29 01:52:00,25.9,16.0,29.52,NNW,338,7.2,13.4,66,0.00,,,0.00,WUHU216HW,2013-01-29 08:52:00,
2013-01-29 01:54:00,25.9,16.0,29.52,NW,315,10.3,11.4,66,0.00,,,0.00,WUHU216HW,2013-01-29 08:54:00,
2013-01-29 01:57:00,26.1,15.8,29.52,NW,315,7.6,11.9,65,0.00,,,0.00,WUHU216HW,2013-01-29 08:57:00,
2013-01-29 01:59:00,26.1,15.8,29.52,NW,315,12.1,12.1,65,0.00,,,0.00,WUHU216HW,2013-01-29 08:59:00,
2013-01-29 02:02:00,26.3,16.0,29.52,NW,315,6.9,12.1,65,0.00,,,0.00,WUHU216HW,2013-01-29 09:02:00,
2013-01-29 02:04:00,26.1,15.8,29.52,NW,315,9.8,12.1,65,0.00,,,0.00,WUHU216HW,2013-01-29 09:04:00,
2013-01-29 02:07:00,26.1,15.5,29.52,NW,315,9.2,12.1,64,0.00,,,0.00,WUHU216HW,2013-01-29 09:07:00,
2013-01-29 02:09:00,26.3,16.0,29.52,NNW,338,10.1,11.6,65,0.00,,,0.00,WUHU216HW,2013-01-29 09:09:00,
2013-01-29 02:10:00,26.3,15.7,29.52,NW,315,9.4,11.6,64,0.00,,,0.00,WUHU216HW,2013-01-29 09:10:00,
2013-01-29 02:12:00,26.3,15.7,29.52,NW,315,12.8,13.4,64,0.00,,,0.00,WUHU216HW,2013-01-29 09:12:00,
2013-01-29 02:14:00,26.3,15.3,29.52,NW,315,11.6,14.8,63,0.00,,,0.00,WUHU216HW,2013-01-29 09:14:00,
2013-01-29 02:15:00,26.5,15.5,29.52,WNW,293,15.0,15.0,63,0.00,,,0.00,WUHU216HW,2013-01-29 09:15:00,
2013-01-29 02:17:00,26.5,15.5,29.52,West,270,14.5,15.0,63,0.00,,,0.00,WUHU216HW,2013-01-29 09:17:00,
2013-01-29 02:19:00,26.5,15.8,29.52,NW,315,10.3,15.0,64,0.00,,,0.00,WUHU216HW,2013-01-29 09:19:00,
2013-01-29 02:20:00,26.5,15.5,29.52,NW,315,10.7,15.0,63,0.00,,,0.00,WUHU216HW,2013-01-29 09:20:00,
2013-01-29 02:22:00,26.5,15.5,29.52,WNW,293,10.5,15.0,63,0.00,,,0.00,WUHU216HW,2013-01-29 09:22:00,
2013-01-29 02:24:00,26.5,15.5,29.52,NW,315,11.9,15.0,63,0.00,,,0.00,WUHU216HW,2013-01-29 09:24:00,
2013-01-29 02:25:00,26.5,15.8,29.52,NW,315,9.4,15.0,64,0.00,,,0.00,WUHU216HW,2013-01-29 09:25:00,
2013-01-29 02:27:00,26.5,15.8,29.52,NW,315,9.6,15.0,64,0.00,,,0.00,WUHU216HW,2013-01-29 09:27:00,
2013-01-29 02:29:00,26.3,15.7,29.53,NW,315,9.6,15.0,64,0.00,,,0.00,WUHU216HW,2013-01-29 09:29:00,
2013-01-29 02:30:00,26.5,15.8,29.53,NW,315,9.8,15.0,64,0.00,,,0.00,WUHU216HW,2013-01-29 09:30:00,
2013-01-29 02:32:00,26.3,16.0,29.53,NW,315,12.3,13.4,65,0.00,,,0.00,WUHU216HW,2013-01-29 09:32:00,
2013-01-29 02:33:00,26.3,15.7,29.53,NW,315,11.6,13.4,64,0.00,,,0.00,WUHU216HW,2013-01-29 09:33:00,
2013-01-29 02:35:00,26.5,16.2,29.53,NNW,338,10.3,15.0,65,0.00,,,0.00,WUHU216HW,2013-01-29 09:35:00,
2013-01-29 02:36:00,26.5,16.2,29.53,NW,315,9.8,15.0,65,0.00,,,0.00,WUHU216HW,2013-01-29 09:36:00,
2013-01-29 02:37:00,26.5,16.2,29.53,NW,315,8.5,15.0,65,0.00,,,0.00,WUHU216HW,2013-01-29 09:37:00,
2013-01-29 02:38:00,26.3,16.0,29.53,NW,315,8.5,15.0,65,0.00,,,0.00,WUHU216HW,2013-01-29 09:38:00,
2013-01-29 02:40:00,26.3,17.1,29.53,North,0,7.8,15.0,68,0.00,,,0.00,WUHU216HW,2013-01-29 09:40:00,
2013-01-29 02:41:00,26.3,17.5,29.53,NNE,23,6.9,15.0,69,0.00,,,0.00,WUHU216HW,2013-01-29 09:41:00,
2013-01-29 02:43:00,25.6,17.5,29.53,NNE,23,4.0,15.0,71,0.00,,,0.00,WUHU216HW,2013-01-29 09:43:00,
2013-01-29 02:45:00,24.8,17.0,29.53,NE,45,6.0,11.0,72,0.00,,,0.00,WUHU216HW,2013-01-29 09:45:00,
2013-01-29 02:46:00,24.7,17.2,29.53,NE,45,4.0,11.0,73,0.00,,,0.00,WUHU216HW,2013-01-29 09:46:00,
2013-01-29 02:48:00,24.1,17.3,29.53,NE,45,6.9,9.6,75,0.00,,,0.00,WUHU216HW,2013-01-29 09:48:00,
2013-01-29 02:50:00,23.9,17.5,29.53,NNE,23,3.4,8.1,76,0.00,,,0.00,WUHU216HW,2013-01-29 09:50:00,
2013-01-29 02:51:00,23.8,17.7,29.53,NE,45,3.4,7.6,77,0.00,,,0.00,WUHU216HW,2013-01-29 09:51:00,
2013-01-29 02:53:00,23.6,17.5,29.53,NNE,23,0.4,6.9,77,0.00,,,0.00,WUHU216HW,2013-01-29 09:53:00,
2013-01-29 02:55:00,23.4,16.9,29.54,NNW,338,0.4,6.9,76,0.00,,,0.00,WUHU216HW,2013-01-29 09:55:00,
2013-01-29 02:56:00,23.4,16.7,29.54,NNW,338,0.0,6.9,75,0.00,,,0.00,WUHU216HW,2013-01-29 09:56:00,
2013-01-29 02:58:00,23.4,16.7,29.54,ESE,113,1.1,6.9,75,0.00,,,0.00,WUHU216HW,2013-01-29 09:58:00,
2013-01-29 02:59:00,23.4,16.7,29.54,WSW,248,1.1,4.0,75,0.00,,,0.00,WUHU216HW,2013-01-29 09:59:00,
2013-01-29 03:00:00,23.4,16.9,29.53,NNW,338,5.6,5.6,76,0.00,,,0.00,WUHU216HW,2013-01-29 10:00:00,
2013-01-29 03:01:00,23.6,17.5,29.54,NW,315,4.9,5.6,77,0.00,,,0.00,WUHU216HW,2013-01-29 10:01:00,
2013-01-29 03:03:00,23.8,17.7,29.54,NNW,338,6.3,6.9,77,0.00,,,0.00,WUHU216HW,2013-01-29 10:03:00,
2013-01-29 03:04:00,23.9,17.8,29.54,NNW,338,4.0,6.9,77,0.00,,,0.00,WUHU216HW,2013-01-29 10:04:00,
2013-01-29 03:05:00,24.1,17.9,29.53,NNW,338,3.6,6.9,77,0.00,,,0.00,WUHU216HW,2013-01-29 10:05:00,
2013-01-29 03:07:00,24.3,17.8,29.53,West,270,6.9,6.9,76,0.00,,,0.00,WUHU216HW,2013-01-29 10:07:00,
2013-01-29 03:08:00,24.5,17.4,29.54,North,0,6.0,11.0,74,0.00,,,0.00,WUHU216HW,2013-01-29 10:08:00,
2013-01-29 03:09:00,24.7,17.8,29.53,NNW,338,6.5,11.0,75,0.00,,,0.00,WUHU216HW,2013-01-29 10:09:00,
2013-01-29 03:11:00,24.8,17.6,29.53,NNW,338,9.2,11.0,74,0.00,,,0.00,WUHU216HW,2013-01-29 10:11:00,
2013-01-29 03:12:00,25.0,17.8,29.53,NNW,338,4.5,11.0,74,0.00,,,0.00,WUHU216HW,2013-01-29 10:12:00,
2013-01-29 03:13:00,25.0,17.8,29.53,North,0,4.9,11.0,74,0.00,,,0.00,WUHU216HW,2013-01-29 10:13:00,
2013-01-29 03:14:00,25.0,17.8,29.53,NNW,338,10.5,11.0,74,0.00,,,0.00,WUHU216HW,2013-01-29 10:14:00,
2013-01-29 03:16:00,25.0,17.8,29.53,NNW,338,7.2,11.0,74,0.00,,,0.00,WUHU216HW,2013-01-29 10:16:00,
2013-01-29 03:17:00,25.0,17.8,29.53,NNW,338,9.2,11.0,74,0.00,,,0.00,WUHU216HW,2013-01-29 10:17:00,
2013-01-29 03:18:00,25.0,17.6,29.54,NNW,338,5.4,10.5,73,0.00,,,0.00,WUHU216HW,2013-01-29 10:18:00,
2013-01-29 03:19:00,25.2,17.7,29.53,NNW,338,9.8,10.5,73,0.00,,,0.00,WUHU216HW,2013-01-29 10:19:00,
2013-01-29 03:21:00,25.2,17.7,29.53,NNW,338,9.8,10.5,73,0.00,,,0.00,WUHU216HW,2013-01-29 10:21:00,
2013-01-29 03:22:00,25.2,17.7,29.54,NNW,338,6.7,10.5,73,0.00,,,0.00,WUHU216HW,2013-01-29 10:22:00,
2013-01-29 03:23:00,25.2,17.7,29.54,NNW,338,6.9,10.5,73,0.00,,,0.00,WUHU216HW,2013-01-29 10:23:00,
2013-01-29 03:24:00,25.2,17.7,29.54,NNW,338,5.6,10.1,73,0.00,,,0.00,WUHU216HW,2013-01-29 10:24:00,
2013-01-29 03:26:00,25.2,17.7,29.54,NNW,338,6.9,10.1,73,0.00,,,0.00,WUHU216HW,2013-01-29 10:26:00,
2013-01-29 03:28:00,25.2,17.4,29.54,NNW,338,6.5,10.1,72,0.00,,,0.00,WUHU216HW,2013-01-29 10:28:00,
2013-01-29 03:29:00,25.2,17.4,29.54,NW,315,7.2,10.1,72,0.00,,,0.00,WUHU216HW,2013-01-29 10:29:00,
2013-01-29 03:31:00,25.2,17.4,29.54,NNW,338,9.2,11.2,72,0.00,,,0.00,WUHU216HW,2013-01-29 10:31:00,
2013-01-29 03:33:00,25.2,17.4,29.54,North,0,5.6,11.2,72,0.00,,,0.00,WUHU216HW,2013-01-29 10:33:00,
2013-01-29 03:34:00,25.2,18.6,29.54,North,0,5.8,11.2,76,0.00,,,0.00,WUHU216HW,2013-01-29 10:34:00,
2013-01-29 03:36:00,24.8,19.3,29.54,NNE,23,4.9,11.2,79,0.00,,,0.00,WUHU216HW,2013-01-29 10:36:00,
2013-01-29 03:38:00,24.3,18.5,29.54,North,0,9.2,11.2,78,0.00,,,0.00,WUHU216HW,2013-01-29 10:38:00,
2013-01-29 03:39:00,24.1,17.9,29.54,North,0,9.2,11.2,77,0.00,,,0.00,WUHU216HW,2013-01-29 10:39:00,
2013-01-29 03:41:00,23.9,19.3,29.54,North,0,7.6,10.5,82,0.00,,,0.00,WUHU216HW,2013-01-29 10:41:00,
2013-01-29 03:43:00,23.8,19.1,29.54,North,0,6.3,10.5,82,0.00,,,0.00,WUHU216HW,2013-01-29 10:43:00,
2013-01-29 03:44:00,23.8,17.9,29.54,North,0,7.8,10.5,78,0.00,,,0.00,WUHU216HW,2013-01-29 10:44:00,
2013-01-29 03:45:00,23.9,18.4,29.54,North,0,6.9,10.5,79,0.00,,,0.00,WUHU216HW,2013-01-29 10:45:00,
2013-01-29 03:47:00,24.1,19.4,29.54,NNE,23,7.6,10.5,82,0.00,,,0.00,WUHU216HW,2013-01-29 10:47:00,
2013-01-29 03:48:00,23.8,19.4,29.54,NE,45,6.3,10.5,83,0.00,,,0.00,WUHU216HW,2013-01-29 10:48:00,
2013-01-29 03:49:00,23.6,19.2,29.54,NE,45,7.2,10.5,83,0.00,,,0.00,WUHU216HW,2013-01-29 10:49:00,
2013-01-29 03:50:00,23.6,19.4,29.54,NNE,23,7.4,12.3,84,0.00,,,0.00,WUHU216HW,2013-01-29 10:50:00,
2013-01-29 03:52:00,23.4,19.3,29.55,NNE,23,9.4,12.3,84,0.00,,,0.00,WUHU216HW,2013-01-29 10:52:00,
2013-01-29 03:53:00,23.4,19.5,29.55,North,0,7.6,12.3,85,0.00,,,0.00,WUHU216HW,2013-01-29 10:53:00,
2013-01-29 03:54:00,23.4,19.5,29.54,North,0,6.3,12.3,85,0.00,,,0.00,WUHU216HW,2013-01-29 10:54:00,
2013-01-29 03:55:00,23.2,19.4,29.55,North,0,7.6,12.3,85,0.00,,,0.00,WUHU216HW,2013-01-29 10:55:00,
2013-01-29 03:57:00,23.4,19.5,29.54,North,0,7.2,12.3,85,0.00,,,0.00,WUHU216HW,2013-01-29 10:57:00,
2013-01-29 03:58:00,23.4,19.5,29.55,North,0,5.8,12.3,85,0.00,,,0.00,WUHU216HW,2013-01-29 10:58:00,
2013-01-29 03:59:00,23.4,19.5,29.55,North,0,6.7,12.3,85,0.00,,,0.00,WUHU216HW,2013-01-29 10:59:00,
2013-01-29 04:01:00,23.4,19.5,29.55,NNW,338,6.5,9.8,85,0.00,,,0.00,WUHU216HW,2013-01-29 11:01:00,
2013-01-29 04:02:00,23.4,19.5,29.55,North,0,5.8,9.8,85,0.00,,,0.00,WUHU216HW,2013-01-29 11:02:00,
2013-01-29 04:04:00,23.4,19.5,29.55,NNW,338,6.9,8.9,85,0.00,,,0.00,WUHU216HW,2013-01-29 11:04:00,
2013-01-29 04:05:00,23.4,19.5,29.55,NNW,338,8.1,8.9,85,0.00,,,0.00,WUHU216HW,2013-01-29 11:05:00,
2013-01-29 04:06:00,23.4,19.5,29.55,NNW,338,6.5,9.8,85,0.00,,,0.00,WUHU216HW,2013-01-29 11:06:00,
2013-01-29 04:07:00,23.4,19.5,29.55,NNW,338,4.5,9.8,85,0.00,,,0.00,WUHU216HW,2013-01-29 11:07:00,
2013-01-29 04:09:00,23.4,19.8,29.55,NNW,338,7.6,9.8,86,0.00,,,0.00,WUHU216HW,2013-01-29 11:09:00,
2013-01-29 04:10:00,23.4,19.8,29.55,NNW,338,6.9,9.8,86,0.00,,,0.00,WUHU216HW,2013-01-29 11:10:00,
2013-01-29 04:11:00,23.4,19.8,29.55,NNW,338,6.3,9.8,86,0.00,,,0.00,WUHU216HW,2013-01-29 11:11:00,
2013-01-29 04:12:00,23.4,19.8,29.55,North,0,8.7,9.8,86,0.00,,,0.00,WUHU216HW,2013-01-29 11:12:00,
2013-01-29 04:14:00,23.4,19.8,29.55,NNW,338,8.5,9.8,86,0.00,,,0.00,WUHU216HW,2013-01-29 11:14:00,
2013-01-29 04:15:00,23.4,19.8,29.55,NNW,338,8.5,9.8,86,0.00,,,0.00,WUHU216HW,2013-01-29 11:15:00,
2013-01-29 04:16:00,23.4,19.8,29.55,NNW,338,8.5,10.7,86,0.00,,,0.00,WUHU216HW,2013-01-29 11:16:00,
2013-01-29 04:17:00,23.4,19.8,29.55,North,0,7.8,10.7,86,0.00,,,0.00,WUHU216HW,2013-01-29 11:17:00,
2013-01-29 04:19:00,23.4,19.5,29.55,NNW,338,6.9,10.7,85,0.00,,,0.00,WUHU216HW,2013-01-29 11:19:00,
2013-01-29 04:20:00,23.4,19.8,29.55,NNW,338,6.7,10.7,86,0.00,,,0.00,WUHU216HW,2013-01-29 11:20:00,
2013-01-29 04:21:00,23.4,19.8,29.55,NNW,338,6.7,10.7,86,0.00,,,0.00,WUHU216HW,2013-01-29 11:21:00,
2013-01-29 04:22:00,23.4,19.5,29.56,NW,315,5.4,10.7,85,0.00,,,0.00,WUHU216HW,2013-01-29 11:22:00,
2013-01-29 04:24:00,23.4,19.8,29.56,NNW,338,7.6,10.7,86,0.00,,,0.00,WUHU216HW,2013-01-29 11:24:00,
2013-01-29 04:25:00,23.4,19.8,29.55,NNW,338,7.2,10.7,86,0.00,,,0.00,WUHU216HW,2013-01-29 11:25:00,
2013-01-29 04:26:00,23.4,19.5,29.55,NNW,338,7.6,8.9,85,0.00,,,0.00,WUHU216HW,2013-01-29 11:26:00,
2013-01-29 04:27:00,23.6,19.7,29.56,NNW,338,5.6,8.9,85,0.00,,,0.00,WUHU216HW,2013-01-29 11:27:00,
2013-01-29 04:29:00,23.6,19.7,29.56,NNW,338,7.4,8.9,85,0.00,,,0.00,WUHU216HW,2013-01-29 11:29:00,
2013-01-29 04:30:00,23.6,19.7,29.56,NNW,338,5.4,8.9,85,0.00,,,0.00,WUHU216HW,2013-01-29 11:30:00,
2013-01-29 04:31:00,23.6,19.7,29.56,NNW,338,6.3,8.9,85,0.00,,,0.00,WUHU216HW,2013-01-29 11:31:00,
2013-01-29 04:32:00,23.4,19.8,29.56,NNW,338,6.0,8.9,86,0.00,,,0.00,WUHU216HW,2013-01-29 11:32:00,
2013-01-29 04:34:00,23.4,19.5,29.56,NNW,338,7.4,8.9,85,0.00,,,0.00,WUHU216HW,2013-01-29 11:34:00,
2013-01-29 04:35:00,23.4,19.5,29.56,NW,315,6.3,8.9,85,0.00,,,0.00,WUHU216HW,2013-01-29 11:35:00,
2013-01-29 04:37:00,23.4,19.5,29.56,NNW,338,6.9,7.8,85,0.00,,,0.00,WUHU216HW,2013-01-29 11:37:00,
2013-01-29 04:38:00,23.4,19.5,29.56,NW,315,4.7,7.6,85,0.00,,,0.00,WUHU216HW,2013-01-29 11:38:00,
2013-01-29 04:39:00,23.4,19.5,29.56,NW,315,4.0,7.6,85,0.00,,,0.00,WUHU216HW,2013-01-29 11:39:00,
2013-01-29 04:40:00,23.4,19.5,29.56,NNW,338,4.9,7.4,85,0.00,,,0.00,WUHU216HW,2013-01-29 11:40:00,
2013-01-29 04:42:00,23.4,19.5,29.56,NW,315,4.0,7.4,85,0.00,,,0.00,WUHU216HW,2013-01-29 11:42:00,
2013-01-29 04:43:00,23.4,19.3,29.56,NNW,338,3.8,7.4,84,0.00,,,0.00,WUHU216HW,2013-01-29 11:43:00,
2013-01-29 04:44:00,23.2,19.1,29.56,NNW,338,4.0,7.4,84,0.00,,,0.00,WUHU216HW,2013-01-29 11:44:00,
2013-01-29 04:45:00,23.2,19.1,29.56,NNW,338,2.9,6.9,84,0.00,,,0.00,WUHU216HW,2013-01-29 11:45:00,
2013-01-29 04:47:00,23.2,19.1,29.56,NNW,338,4.0,5.6,84,0.00,,,0.00,WUHU216HW,2013-01-29 11:47:00,
2013-01-29 04:48:00,23.2,19.1,29.56,NNW,338,5.4,5.6,84,0.00,,,0.00,WUHU216HW,2013-01-29 11:48:00,
2013-01-29 04:50:00,23.2,19.1,29.56,NNW,338,4.0,5.6,84,0.00,,,0.00,WUHU216HW,2013-01-29 11:50:00,
2013-01-29 04:52:00,23.0,18.9,29.56,NW,315,3.1,5.4,84,0.00,,,0.00,WUHU216HW,2013-01-29 11:52:00,
2013-01-29 04:53:00,23.0,18.9,29.56,NW,315,2.5,5.4,84,0.00,,,0.00,WUHU216HW,2013-01-29 11:53:00,
2013-01-29 04:55:00,23.0,18.9,29.56,NNW,338,4.0,5.4,84,0.00,,,0.00,WUHU216HW,2013-01-29 11:55:00,
2013-01-29 04:58:00,23.0,18.6,29.56,NNW,338,4.0,5.4,83,0.00,,,0.00,WUHU216HW,2013-01-29 11:58:00,
2013-01-29 05:00:00,23.2,18.8,29.56,NNW,338,4.3,5.4,83,0.00,,,0.00,WUHU216HW,2013-01-29 12:00:00,
2013-01-29 05:03:00,23.2,18.5,29.56,NNW,338,4.3,5.4,82,0.00,,,0.00,WUHU216HW,2013-01-29 12:03:00,
2013-01-29 05:05:00,23.2,18.5,29.56,NNW,338,4.7,5.4,82,0.00,,,0.00,WUHU216HW,2013-01-29 12:05:00,
2013-01-29 05:06:00,23.2,18.5,29.56,NNW,338,4.0,5.4,82,0.00,,,0.00,WUHU216HW,2013-01-29 12:06:00,
2013-01-29 05:08:00,23.2,18.3,29.57,NW,315,4.9,6.5,81,0.00,,,0.00,WUHU216HW,2013-01-29 12:08:00,
2013-01-29 05:10:00,23.2,18.3,29.57,NNW,338,5.1,7.6,81,0.00,,,0.00,WUHU216HW,2013-01-29 12:10:00,
2013-01-29 05:11:00,23.2,18.3,29.57,NNW,338,7.2,7.6,81,0.00,,,0.00,WUHU216HW,2013-01-29 12:11:00,
2013-01-29 05:13:00,23.4,18.2,29.57,NW,315,6.7,10.3,80,0.00,,,0.00,WUHU216HW,2013-01-29 12:13:00,
2013-01-29 05:14:00,23.4,18.2,29.57,NNW,338,6.9,10.3,80,0.00,,,0.00,WUHU216HW,2013-01-29 12:14:00,
2013-01-29 05:15:00,23.4,18.2,29.57,NW,315,8.7,10.3,80,0.00,,,0.00,WUHU216HW,2013-01-29 12:15:00,
2013-01-29 05:16:00,23.6,18.4,29.57,NNW,338,7.2,10.3,80,0.00,,,0.00,WUHU216HW,2013-01-29 12:16:00,
2013-01-29 05:18:00,23.8,18.3,29.57,NW,315,6.5,10.3,79,0.00,,,0.00,WUHU216HW,2013-01-29 12:18:00,
2013-01-29 05:19:00,23.8,18.3,29.57,NNW,338,9.8,10.3,79,0.00,,,0.00,WUHU216HW,2013-01-29 12:19:00,
2013-01-29 05:20:00,23.8,18.5,29.57,NW,315,9.2,11.4,80,0.00,,,0.00,WUHU216HW,2013-01-29 12:20:00,
2013-01-29 05:21:00,23.9,18.4,29.57,NNW,338,11.2,11.4,79,0.00,,,0.00,WUHU216HW,2013-01-29 12:21:00,
2013-01-29 05:23:00,23.9,18.4,29.57,NNW,338,7.2,11.4,79,0.00,,,0.00,WUHU216HW,2013-01-29 12:23:00,
2013-01-29 05:24:00,23.9,18.4,29.57,NNW,338,7.2,11.4,79,0.00,,,0.00,WUHU216HW,2013-01-29 12:24:00,
2013-01-29 05:25:00,24.1,18.5,29.58,NNW,338,7.4,11.4,79,0.00,,,0.00,WUHU216HW,2013-01-29 12:25:00,
2013-01-29 05:27:00,24.1,18.5,29.58,NNW,338,9.8,11.4,79,0.00,,,0.00,WUHU216HW,2013-01-29 12:27:00,
2013-01-29 05:29:00,24.1,18.5,29.58,NNW,338,11.0,11.4,79,0.00,,,0.00,WUHU216HW,2013-01-29 12:29:00,
2013-01-29 05:30:00,23.9,18.7,29.58,NNW,338,10.5,11.4,80,0.00,,,0.00,WUHU216HW,2013-01-29 12:30:00,
2013-01-29 05:32:00,23.8,18.5,29.58,North,0,15.9,15.9,80,0.00,,,0.00,WUHU216HW,2013-01-29 12:32:00,
2013-01-29 05:34:00,23.4,18.5,29.58,NNW,338,10.5,15.9,81,0.00,,,0.00,WUHU216HW,2013-01-29 12:34:00,
2013-01-29 05:36:00,23.0,18.4,29.59,NNW,338,12.3,15.9,82,0.00,,,0.00,WUHU216HW,2013-01-29 12:36:00,
2013-01-29 05:37:00,22.9,18.5,29.59,NNW,338,15.7,15.9,83,0.00,,,0.00,WUHU216HW,2013-01-29 12:37:00,
2013-01-29 05:39:00,22.9,18.5,29.59,NNW,338,13.4,15.9,83,0.00,,,0.00,WUHU216HW,2013-01-29 12:39:00,
2013-01-29 05:41:00,22.9,18.5,29.59,NNW,338,14.8,15.9,83,0.00,,,0.00,WUHU216HW,2013-01-29 12:41:00,
2013-01-29 05:42:00,22.9,18.5,29.59,NNW,338,13.4,15.9,83,0.00,,,0.00,WUHU216HW,2013-01-29 12:42:00,
2013-01-29 05:44:00,22.7,18.3,29.59,NW,315,11.9,15.7,83,0.00,,,0.00,WUHU216HW,2013-01-29 12:44:00,
2013-01-29 05:46:00,22.7,18.3,29.59,NNW,338,8.7,15.7,83,0.00,,,0.00,WUHU216HW,2013-01-29 12:46:00,
2013-01-29 05:47:00,22.7,18.3,29.59,NNW,338,11.2,15.4,83,0.00,,,0.00,WUHU216HW,2013-01-29 12:47:00,
2013-01-29 05:49:00,22.7,18.3,29.59,NW,315,10.1,15.4,83,0.00,,,0.00,WUHU216HW,2013-01-29 12:49:00,
2013-01-29 05:51:00,22.7,18.0,29.59,NNW,338,9.2,14.8,82,0.00,,,0.00,WUHU216HW,2013-01-29 12:51:00,
2013-01-29 05:52:00,22.7,18.0,29.59,NW,315,10.5,13.4,82,0.00,,,0.00,WUHU216HW,2013-01-29 12:52:00,
2013-01-29 05:54:00,22.7,18.0,29.59,NW,315,9.8,12.5,82,0.00,,,0.00,WUHU216HW,2013-01-29 12:54:00,
2013-01-29 05:56:00,22.9,18.2,29.59,NNW,338,10.5,11.6,82,0.00,,,0.00,WUHU216HW,2013-01-29 12:56:00,
2013-01-29 05:57:00,22.7,18.3,29.59,NNW,338,12.3,13.9,83,0.00,,,0.00,WUHU216HW,2013-01-29 12:57:00,
2013-01-29 05:59:00,22.7,18.3,29.59,NW,315,10.3,13.9,83,0.00,,,0.00,WUHU216HW,2013-01-29 12:59:00,
2013-01-29 06:01:00,22.7,18.3,29.59,NW,315,12.3,15.0,83,0.00,,,0.00,WUHU216HW,2013-01-29 13:01:00,
2013-01-29 06:02:00,22.7,18.3,29.60,NNW,338,13.9,17.7,83,0.00,,,0.00,WUHU216HW,2013-01-29 13:02:00,
2013-01-29 06:04:00,22.7,18.5,29.60,WNW,293,12.1,17.7,84,0.00,,,0.00,WUHU216HW,2013-01-29 13:04:00,
2013-01-29 06:06:00,22.5,18.4,29.60,NW,315,16.3,17.7,84,0.00,,,0.00,WUHU216HW,2013-01-29 13:06:00,
2013-01-29 06:08:00,22.5,18.4,29.60,NW,315,14.3,17.7,84,0.00,,,0.00,WUHU216HW,2013-01-29 13:08:00,
2013-01-29 06:09:00,22.3,18.5,29.60,NW,315,12.1,17.7,85,0.00,,,0.00,WUHU216HW,2013-01-29 13:09:00,
2013-01-29 06:11:00,22.3,18.5,29.60,NNW,338,13.6,17.7,85,0.00,,,0.00,WUHU216HW,2013-01-29 13:11:00,
2013-01-29 06:13:00,22.3,18.5,29.60,NW,315,10.5,17.7,85,0.00,,,0.00,WUHU216HW,2013-01-29 13:13:00,
2013-01-29 06:14:00,22.1,18.3,29.60,NW,315,9.6,17.7,85,0.00,,,0.00,WUHU216HW,2013-01-29 13:14:00,
2013-01-29 06:15:00,22.1,18.3,29.60,NNW,338,10.7,17.7,85,0.00,,,0.00,WUHU216HW,2013-01-29 13:15:00,
2013-01-29 06:16:00,22.1,18.3,29.60,NNW,338,7.6,14.3,85,0.00,,,0.00,WUHU216HW,2013-01-29 13:16:00,
2013-01-29 06:18:00,22.1,18.3,29.61,NW,315,8.9,14.3,85,0.00,,,0.00,WUHU216HW,2013-01-29 13:18:00,
2013-01-29 06:19:00,22.1,18.0,29.61,NNW,338,10.1,13.6,84,0.00,,,0.00,WUHU216HW,2013-01-29 13:19:00,
2013-01-29 06:20:00,22.1,18.0,29.61,NNW,338,10.5,13.6,84,0.00,,,0.00,WUHU216HW,2013-01-29 13:20:00,
2013-01-29 06:21:00,22.1,18.0,29.61,NW,315,9.2,13.6,84,0.00,,,0.00,WUHU216HW,2013-01-29 13:21:00,
2013-01-29 06:23:00,22.0,17.3,29.61,NW,315,10.7,12.1,82,0.00,,,0.00,WUHU216HW,2013-01-29 13:23:00,
2013-01-29 06:24:00,22.0,17.0,29.61,NW,315,11.4,12.5,81,0.00,,,0.00,WUHU216HW,2013-01-29 13:24:00,
2013-01-29 06:25:00,22.0,16.7,29.61,NW,315,10.5,12.5,80,0.00,,,0.00,WUHU216HW,2013-01-29 13:25:00,
2013-01-29 06:27:00,22.0,16.7,29.61,NNW,338,12.8,12.8,80,0.00,,,0.00,WUHU216HW,2013-01-29 13:27:00,
2013-01-29 06:28:00,22.0,16.7,29.61,NNW,338,10.3,13.4,80,0.00,,,0.00,WUHU216HW,2013-01-29 13:28:00,
2013-01-29 06:29:00,22.0,16.5,29.61,North,0,9.8,13.4,79,0.00,,,0.00,WUHU216HW,2013-01-29 13:29:00,
2013-01-29 06:30:00,21.8,15.9,29.61,NNW,338,11.2,13.4,78,0.00,,,0.00,WUHU216HW,2013-01-29 13:30:00,
2013-01-29 06:32:00,21.6,16.1,29.61,NNW,338,11.0,13.4,79,0.00,,,0.00,WUHU216HW,2013-01-29 13:32:00,
2013-01-29 06:35:00,21.4,15.6,29.61,NNW,338,13.6,13.6,78,0.00,,,0.00,WUHU216HW,2013-01-29 13:35:00,
2013-01-29 06:37:00,21.2,15.8,29.61,North,0,12.1,13.6,79,0.00,,,0.00,WUHU216HW,2013-01-29 13:37:00,
2013-01-29 06:40:00,20.9,15.7,29.62,NNW,338,12.1,13.6,80,0.00,,,0.00,WUHU216HW,2013-01-29 13:40:00,
2013-01-29 06:42:00,20.5,15.8,29.62,NNW,338,9.8,13.6,82,0.00,,,0.00,WUHU216HW,2013-01-29 13:42:00,
2013-01-29 06:45:00,20.5,15.8,29.62,NNW,338,8.3,13.6,82,0.00,,,0.00,WUHU216HW,2013-01-29 13:45:00,
2013-01-29 06:46:00,20.3,15.7,29.62,NNW,338,10.5,12.5,82,0.00,,,0.00,WUHU216HW,2013-01-29 13:46:00,
2013-01-29 06:47:00,20.3,15.7,29.62,NNW,338,14.3,14.3,82,0.00,,,0.00,WUHU216HW,2013-01-29 13:47:00,
2013-01-29 06:50:00,20.3,15.9,29.62,NNW,338,12.8,15.2,83,0.00,,,0.00,WUHU216HW,2013-01-29 13:50:00,
2013-01-29 06:51:00,20.2,15.5,29.62,NNW,338,11.4,15.2,82,0.00,,,0.00,WUHU216HW,2013-01-29 13:51:00,
2013-01-29 06:52:00,20.2,15.8,29.62,NNW,338,10.5,15.2,83,0.00,,,0.00,WUHU216HW,2013-01-29 13:52:00,
2013-01-29 06:55:00,20.0,15.6,29.62,NNW,338,14.8,15.2,83,0.00,,,0.00,WUHU216HW,2013-01-29 13:55:00,
2013-01-29 06:56:00,20.0,15.6,29.63,NNW,338,14.3,15.2,83,0.00,,,0.00,WUHU216HW,2013-01-29 13:56:00,
2013-01-29 06:57:00,19.8,15.7,29.63,NNW,338,11.0,15.2,84,0.00,,,0.00,WUHU216HW,2013-01-29 13:57:00,
2013-01-29 07:00:00,19.6,15.5,29.63,North,0,9.6,15.0,84,0.00,,,0.00,WUHU216HW,2013-01-29 14:00:00,
2013-01-29 07:01:00,19.4,15.3,29.63,NNW,338,11.4,15.0,84,0.00,,,0.00,WUHU216HW,2013-01-29 14:01:00,
2013-01-29 07:03:00,19.3,15.4,29.63,North,0,12.8,15.0,85,0.00,,,0.00,WUHU216HW,2013-01-29 14:03:00,
2013-01-29 07:05:00,19.1,15.2,29.63,NNW,338,9.2,14.8,85,0.00,,,0.00,WUHU216HW,2013-01-29 14:05:00,
2013-01-29 07:06:00,19.1,15.2,29.63,NNW,338,11.2,14.3,85,0.00,,,0.00,WUHU216HW,2013-01-29 14:06:00,
2013-01-29 07:08:00,19.1,15.5,29.63,NNW,338,10.5,13.4,86,0.00,,,0.00,WUHU216HW,2013-01-29 14:08:00,
2013-01-29 07:10:00,19.1,14.9,29.63,NNW,338,11.4,13.4,84,0.00,,,0.00,WUHU216HW,2013-01-29 14:10:00,
2013-01-29 07:11:00,19.1,14.9,29.63,NNW,338,15.0,15.0,84,0.00,,,0.00,WUHU216HW,2013-01-29 14:11:00,
2013-01-29 07:13:00,19.1,14.7,29.63,NNW,338,15.4,15.7,83,0.00,,,0.00,WUHU216HW,2013-01-29 14:13:00,
2013-01-29 07:15:00,19.1,14.7,29.63,NNW,338,15.0,16.8,83,0.00,,,0.00,WUHU216HW,2013-01-29 14:15:00,
2013-01-29 07:16:00,19.1,14.9,29.63,North,0,12.3,16.8,84,0.00,,,0.00,WUHU216HW,2013-01-29 14:16:00,
2013-01-29 07:18:00,19.1,14.9,29.63,NNW,338,10.7,16.8,84,0.00,,,0.00,WUHU216HW,2013-01-29 14:18:00,
2013-01-29 07:20:00,18.9,14.8,29.64,NNW,338,12.3,16.8,84,0.00,,,0.00,WUHU216HW,2013-01-29 14:20:00,
2013-01-29 07:21:00,19.1,14.7,29.64,NNW,338,17.2,17.2,83,0.00,,,0.00,WUHU216HW,2013-01-29 14:21:00,
2013-01-29 07:23:00,18.9,14.2,29.64,NNW,338,16.6,17.2,82,0.00,,,0.00,WUHU216HW,2013-01-29 14:23:00,
2013-01-29 07:25:00,18.9,14.2,29.64,NNW,338,17.9,18.6,82,0.00,,,0.00,WUHU216HW,2013-01-29 14:25:00,
2013-01-29 07:26:00,19.1,14.4,29.64,NNW,338,15.7,18.6,82,0.00,,,0.00,WUHU216HW,2013-01-29 14:26:00,
2013-01-29 07:29:00,18.9,14.2,29.64,NNW,338,18.8,18.8,82,0.00,,,0.00,WUHU216HW,2013-01-29 14:29:00,
2013-01-29 07:30:00,18.9,14.2,29.64,NNW,338,17.9,19.9,82,0.00,,,0.00,WUHU216HW,2013-01-29 14:30:00,
2013-01-29 07:31:00,18.7,14.0,29.64,NNW,338,18.3,19.9,82,0.00,,,0.00,WUHU216HW,2013-01-29 14:31:00,
2013-01-29 07:32:00,18.7,14.0,29.64,NNW,338,16.6,19.9,82,0.00,,,0.00,WUHU216HW,2013-01-29 14:32:00,
2013-01-29 07:34:00,18.7,14.0,29.64,NW,315,18.3,19.9,82,0.00,,,0.00,WUHU216HW,2013-01-29 14:34:00,
2013-01-29 07:35:00,18.7,14.0,29.64,NNW,338,14.8,19.9,82,0.00,,,0.00,WUHU216HW,2013-01-29 14:35:00,
2013-01-29 07:36:00,18.7,14.0,29.64,NW,315,14.1,19.9,82,0.00,,,0.00,WUHU216HW,2013-01-29 14:36:00,
2013-01-29 07:37:00,18.7,14.0,29.64,North,0,17.2,19.9,82,0.00,,,0.00,WUHU216HW,2013-01-29 14:37:00,
2013-01-29 07:39:00,18.7,14.0,29.65,NW,315,14.3,19.9,82,0.00,,,0.00,WUHU216HW,2013-01-29 14:39:00,
2013-01-29 07:41:00,18.7,14.0,29.65,NNW,338,15.0,18.6,82,0.00,,,0.00,WUHU216HW,2013-01-29 14:41:00,
2013-01-29 07:42:00,18.5,13.9,29.65,NNW,338,15.2,18.6,82,0.00,,,0.00,WUHU216HW,2013-01-29 14:42:00,
2013-01-29 07:44:00,18.5,13.9,29.65,NNW,338,15.0,18.6,82,0.00,,,0.00,WUHU216HW,2013-01-29 14:44:00,
2013-01-29 07:46:00,18.5,13.9,29.65,NNW,338,13.9,18.6,82,0.00,,,0.00,WUHU216HW,2013-01-29 14:46:00,
2013-01-29 07:47:00,18.5,13.9,29.65,NW,315,12.8,18.6,82,0.00,,,0.00,WUHU216HW,2013-01-29 14:47:00,
2013-01-29 07:49:00,18.5,13.6,29.65,NNW,338,17.9,17.9,81,0.00,,,0.00,WUHU216HW,2013-01-29 14:49:00,
2013-01-29 07:51:00,18.5,13.6,29.65,NNW,338,16.8,20.1,81,0.00,,,0.00,WUHU216HW,2013-01-29 14:51:00,
2013-01-29 07:52:00,18.5,13.6,29.65,NNW,338,17.2,20.1,81,0.00,,,0.00,WUHU216HW,2013-01-29 14:52:00,
2013-01-29 07:54:00,18.5,13.6,29.65,NNW,338,17.2,20.1,81,0.00,,,0.00,WUHU216HW,2013-01-29 14:54:00,
2013-01-29 07:56:00,18.5,13.6,29.66,NW,315,16.6,20.1,81,0.00,,,0.00,WUHU216HW,2013-01-29 14:56:00,
2013-01-29 07:57:00,18.5,13.6,29.66,NNW,338,15.4,20.1,81,0.00,,,0.00,WUHU216HW,2013-01-29 14:57:00,
2013-01-29 07:58:00,18.5,13.6,29.66,NNW,338,14.1,20.1,81,0.00,,,0.00,WUHU216HW,2013-01-29 14:58:00,
2013-01-29 08:00:00,18.7,13.5,29.66,NNW,338,13.9,18.3,80,0.00,,,0.00,WUHU216HW,2013-01-29 15:00:00,
2013-01-29 08:01:00,18.7,13.5,29.66,NNW,338,13.2,18.3,80,0.00,,,0.00,WUHU216HW,2013-01-29 15:01:00,
2013-01-29 08:02:00,18.7,13.5,29.66,NNW,338,15.4,18.3,80,0.00,,,0.00,WUHU216HW,2013-01-29 15:02:00,
2013-01-29 08:03:00,18.5,13.1,29.66,NNW,338,16.3,18.3,79,0.00,,,0.00,WUHU216HW,2013-01-29 15:03:00,
2013-01-29 08:05:00,18.5,13.1,29.66,NNW,338,16.8,18.3,79,0.00,,,0.00,WUHU216HW,2013-01-29 15:05:00,
2013-01-29 08:06:00,18.5,13.1,29.66,NNW,338,14.3,18.3,79,0.00,,,0.00,WUHU216HW,2013-01-29 15:06:00,
2013-01-29 08:07:00,18.5,13.1,29.66,NNW,338,12.8,18.3,79,0.00,,,0.00,WUHU216HW,2013-01-29 15:07:00,
2013-01-29 08:08:00,18.5,12.7,29.66,NNW,338,16.3,18.3,78,0.00,,,0.00,WUHU216HW,2013-01-29 15:08:00,
2013-01-29 08:10:00,18.5,12.4,29.67,North,0,16.3,19.2,77,0.00,,,0.00,WUHU216HW,2013-01-29 15:10:00,
2013-01-29 08:11:00,18.5,12.2,29.66,NNW,338,15.0,19.2,76,0.00,,,0.00,WUHU216HW,2013-01-29 15:11:00,
2013-01-29 08:12:00,18.4,12.2,29.67,NNW,338,17.9,19.2,77,0.00,,,0.00,WUHU216HW,2013-01-29 15:12:00,
2013-01-29 08:13:00,18.4,12.0,29.67,NNW,338,20.4,20.4,76,0.00,,,0.00,WUHU216HW,2013-01-29 15:13:00,
2013-01-29 08:15:00,18.4,12.2,29.67,NNW,338,14.8,20.4,77,0.00,,,0.00,WUHU216HW,2013-01-29 15:15:00,
2013-01-29 08:16:00,18.4,12.5,29.67,North,0,16.3,20.4,78,0.00,,,0.00,WUHU216HW,2013-01-29 15:16:00,
2013-01-29 08:17:00,18.2,12.3,29.67,NNW,338,19.2,20.4,78,0.00,,,0.00,WUHU216HW,2013-01-29 15:17:00,
2013-01-29 08:18:00,18.2,12.3,29.67,NW,315,16.3,20.4,78,0.00,,,0.00,WUHU216HW,2013-01-29 15:18:00,
2013-01-29 08:20:00,18.0,12.5,29.67,NNW,338,14.8,20.4,79,0.00,,,0.00,WUHU216HW,2013-01-29 15:20:00,
2013-01-29 08:21:00,18.0,12.5,29.67,NNW,338,14.3,20.4,79,0.00,,,0.00,WUHU216HW,2013-01-29 15:21:00,
2013-01-29 08:22:00,18.0,12.5,29.67,NNW,338,16.1,20.4,79,0.00,,,0.00,WUHU216HW,2013-01-29 15:22:00,
2013-01-29 08:23:00,18.0,12.5,29.67,NNW,338,15.9,20.4,79,0.00,,,0.00,WUHU216HW,2013-01-29 15:23:00,
2013-01-29 08:25:00,18.2,12.7,29.68,NNW,338,13.9,20.4,79,0.00,,,0.00,WUHU216HW,2013-01-29 15:25:00,
2013-01-29 08:26:00,18.2,12.3,29.68,NNW,338,15.7,19.7,78,0.00,,,0.00,WUHU216HW,2013-01-29 15:26:00,
2013-01-29 08:27:00,18.4,12.5,29.68,NNW,338,16.6,19.2,78,0.00,,,0.00,WUHU216HW,2013-01-29 15:27:00,
2013-01-29 08:28:00,18.4,12.5,29.68,NNW,338,16.6,18.6,78,0.00,,,0.00,WUHU216HW,2013-01-29 15:28:00,
2013-01-29 08:30:00,18.4,12.0,29.68,NNW,338,15.4,18.6,76,0.00,,,0.00,WUHU216HW,2013-01-29 15:30:00,
2013-01-29 08:32:00,18.4,12.0,29.68,NNW,338,15.7,18.6,76,0.00,,,0.00,WUHU216HW,2013-01-29 15:32:00,
2013-01-29 08:33:00,18.5,12.2,29.68,NNW,338,14.3,18.6,76,0.00,,,0.00,WUHU216HW,2013-01-29 15:33:00,
2013-01-29 08:35:00,18.5,12.2,29.69,NNW,338,15.7,19.2,76,0.00,,,0.00,WUHU216HW,2013-01-29 15:35:00,
2013-01-29 08:37:00,18.4,12.0,29.69,NW,315,12.1,19.2,76,0.00,,,0.00,WUHU216HW,2013-01-29 15:37:00,
2013-01-29 08:38:00,18.4,12.0,29.69,NNW,338,13.0,19.2,76,0.00,,,0.00,WUHU216HW,2013-01-29 15:38:00,
2013-01-29 08:40:00,18.5,11.9,29.69,NNW,338,17.4,19.7,75,0.00,,,0.00,WUHU216HW,2013-01-29 15:40:00,
2013-01-29 08:42:00,18.5,11.5,29.69,North,0,15.0,19.7,74,0.00,,,0.00,WUHU216HW,2013-01-29 15:42:00,
2013-01-29 08:43:00,18.5,11.5,29.69,NNW,338,15.0,19.7,74,0.00,,,0.00,WUHU216HW,2013-01-29 15:43:00,
2013-01-29 08:45:00,18.5,11.9,29.69,North,0,12.5,19.7,75,0.00,,,0.00,WUHU216HW,2013-01-29 15:45:00,
2013-01-29 08:47:00,18.5,11.9,29.70,NNW,338,16.1,19.7,75,0.00,,,0.00,WUHU216HW,2013-01-29 15:47:00,
2013-01-29 08:48:00,18.4,12.0,29.70,NNW,338,15.4,19.7,76,0.00,,,0.00,WUHU216HW,2013-01-29 15:48:00,
2013-01-29 08:51:00,18.4,12.0,29.70,NNW,338,16.6,19.2,76,0.00,,,0.00,WUHU216HW,2013-01-29 15:51:00,
2013-01-29 08:53:00,18.4,12.2,29.70,NNW,338,14.1,19.2,77,0.00,,,0.00,WUHU216HW,2013-01-29 15:53:00,
2013-01-29 08:56:00,18.2,12.3,29.70,NNW,338,18.3,19.7,78,0.00,,,0.00,WUHU216HW,2013-01-29 15:56:00,
2013-01-29 08:58:00,18.0,12.3,29.70,NNW,338,14.3,19.7,78,0.00,,,0.00,WUHU216HW,2013-01-29 15:58:00,
2013-01-29 09:01:00,17.8,12.1,29.71,NNW,338,15.4,19.7,78,0.00,,,0.00,WUHU216HW,2013-01-29 16:01:00,
2013-01-29 09:03:00,17.8,12.1,29.71,North,0,11.4,19.7,78,0.00,,,0.00,WUHU216HW,2013-01-29 16:03:00,
2013-01-29 09:06:00,17.8,12.3,29.71,NNW,338,13.9,17.4,79,0.00,,,0.00,WUHU216HW,2013-01-29 16:06:00,
2013-01-29 09:08:00,18.0,12.3,29.71,NNW,338,15.0,16.3,78,0.00,,,0.00,WUHU216HW,2013-01-29 16:08:00,
2013-01-29 09:09:00,18.0,12.3,29.71,NW,315,17.4,17.4,78,0.00,,,0.00,WUHU216HW,2013-01-29 16:09:00,
2013-01-29 09:12:00,18.4,12.0,29.71,NNW,338,17.2,17.7,76,0.00,,,0.00,WUHU216HW,2013-01-29 16:12:00,
2013-01-29 09:13:00,18.4,12.0,29.71,North,0,12.1,18.1,76,0.00,,,0.00,WUHU216HW,2013-01-29 16:13:00,
2013-01-29 09:14:00,18.4,12.0,29.71,NNW,338,12.5,18.1,76,0.00,,,0.00,WUHU216HW,2013-01-29 16:14:00,
2013-01-29 09:17:00,18.2,11.5,29.71,NNW,338,19.5,19.9,75,0.00,,,0.00,WUHU216HW,2013-01-29 16:17:00,
2013-01-29 09:19:00,18.2,11.8,29.72,NW,315,18.8,19.9,76,0.00,,,0.00,WUHU216HW,2013-01-29 16:19:00,
2013-01-29 09:22:00,18.0,12.3,29.72,NW,315,20.4,23.3,78,0.00,,,0.00,WUHU216HW,2013-01-29 16:22:00,
2013-01-29 09:24:00,17.6,12.2,29.72,NW,315,27.5,27.5,79,0.00,,,0.00,WUHU216HW,2013-01-29 16:24:00,
2013-01-29 09:27:00,17.3,12.1,29.72,NW,315,20.4,27.5,80,0.00,,,0.00,WUHU216HW,2013-01-29 16:27:00,
2013-01-29 09:29:00,17.1,11.6,29.72,NNW,338,19.2,27.5,79,0.00,,,0.00,WUHU216HW,2013-01-29 16:29:00,
2013-01-29 09:32:00,16.9,11.5,29.73,NW,315,23.7,27.5,79,0.00,,,0.00,WUHU216HW,2013-01-29 16:32:00,
2013-01-29 09:34:00,17.1,11.6,29.73,NW,315,19.9,24.6,79,0.00,,,0.00,WUHU216HW,2013-01-29 16:34:00,
2013-01-29 09:35:00,17.1,11.6,29.73,NW,315,17.9,24.6,79,0.00,,,0.00,WUHU216HW,2013-01-29 16:35:00,
2013-01-29 09:37:00,17.1,12.0,29.73,NW,315,20.8,23.7,80,0.00,,,0.00,WUHU216HW,2013-01-29 16:37:00,
2013-01-29 09:39:00,17.3,12.1,29.73,NW,315,18.3,23.7,80,0.00,,,0.00,WUHU216HW,2013-01-29 16:39:00,
2013-01-29 09:40:00,17.3,12.1,29.73,NW,315,18.3,23.7,80,0.00,,,0.00,WUHU216HW,2013-01-29 16:40:00,
2013-01-29 09:43:00,17.5,11.7,29.74,NW,315,15.7,23.7,78,0.00,,,0.00,WUHU216HW,2013-01-29 16:43:00,
2013-01-29 09:44:00,17.6,11.9,29.74,NNW,338,19.0,21.5,78,0.00,,,0.00,WUHU216HW,2013-01-29 16:44:00,
2013-01-29 09:45:00,17.6,11.3,29.74,NW,315,21.5,22.6,76,0.00,,,0.00,WUHU216HW,2013-01-29 16:45:00,
2013-01-29 09:48:00,17.6,11.0,29.74,NNW,338,19.2,22.6,75,0.00,,,0.00,WUHU216HW,2013-01-29 16:48:00,
2013-01-29 09:49:00,17.6,11.0,29.74,NW,315,18.8,22.6,75,0.00,,,0.00,WUHU216HW,2013-01-29 16:49:00,
2013-01-29 09:50:00,17.6,10.7,29.74,NW,315,21.5,22.6,74,0.00,,,0.00,WUHU216HW,2013-01-29 16:50:00,
2013-01-29 09:53:00,17.5,10.8,29.75,NNW,338,18.6,23.5,75,0.00,,,0.00,WUHU216HW,2013-01-29 16:53:00,
2013-01-29 09:54:00,17.5,10.5,29.75,NW,315,18.1,23.5,74,0.00,,,0.00,WUHU216HW,2013-01-29 16:54:00,
2013-01-29 09:55:00,17.5,10.5,29.75,NNW,338,17.9,23.5,74,0.00,,,0.00,WUHU216HW,2013-01-29 16:55:00,
2013-01-29 09:58:00,17.3,10.6,29.76,NNW,338,18.1,23.5,75,0.00,,,0.00,WUHU216HW,2013-01-29 16:58:00,
2013-01-29 09:59:00,17.3,10.6,29.76,NW,315,17.4,23.5,75,0.00,,,0.00,WUHU216HW,2013-01-29 16:59:00,
2013-01-29 10:00:00,17.3,10.6,29.76,NW,315,17.2,23.5,75,0.00,,,0.00,WUHU216HW,2013-01-29 17:00:00,
2013-01-29 10:03:00,17.5,10.5,29.76,NNW,338,15.0,20.1,74,0.00,,,0.00,WUHU216HW,2013-01-29 17:03:00,
2013-01-29 10:04:00,17.6,10.7,29.76,NNW,338,16.8,20.1,74,0.00,,,0.00,WUHU216HW,2013-01-29 17:04:00,
2013-01-29 10:05:00,17.6,10.7,29.76,NNW,338,19.9,20.1,74,0.00,,,0.00,WUHU216HW,2013-01-29 17:05:00,
2013-01-29 10:08:00,17.6,10.1,29.76,NW,315,20.4,21.0,72,0.00,,,0.00,WUHU216HW,2013-01-29 17:08:00,
2013-01-29 10:10:00,17.8,10.0,29.76,NW,315,18.6,21.5,71,0.00,,,0.00,WUHU216HW,2013-01-29 17:10:00,
2013-01-29 10:13:00,17.8,10.5,29.76,NW,315,18.1,21.5,73,0.00,,,0.00,WUHU216HW,2013-01-29 17:13:00,
2013-01-29 10:15:00,17.8,10.3,29.76,NNW,338,18.6,21.5,72,0.00,,,0.00,WUHU216HW,2013-01-29 17:15:00,
2013-01-29 10:18:00,17.6,9.8,29.77,NW,315,17.2,21.9,71,0.00,,,0.00,WUHU216HW,2013-01-29 17:18:00,
2013-01-29 10:20:00,17.8,10.3,29.77,NNW,338,15.0,21.9,72,0.00,,,0.00,WUHU216HW,2013-01-29 17:20:00,
2013-01-29 10:21:00,18.0,10.2,29.77,NNW,338,18.1,21.9,71,0.00,,,0.00,WUHU216HW,2013-01-29 17:21:00,
2013-01-29 10:23:00,17.8,9.4,29.77,NNW,338,23.0,25.1,69,0.00,,,0.00,WUHU216HW,2013-01-29 17:23:00,
2013-01-29 10:25:00,17.8,9.4,29.77,NNW,338,19.2,25.1,69,0.00,,,0.00,WUHU216HW,2013-01-29 17:25:00,
2013-01-29 10:26:00,17.6,9.2,29.77,NW,315,20.8,25.1,69,0.00,,,0.00,WUHU216HW,2013-01-29 17:26:00,
2013-01-29 10:28:00,17.6,8.8,29.77,NW,315,24.4,25.1,68,0.00,,,0.00,WUHU216HW,2013-01-29 17:28:00,
2013-01-29 10:30:00,17.6,8.6,29.77,NW,315,23.0,25.1,67,0.00,,,0.00,WUHU216HW,2013-01-29 17:30:00,
2013-01-29 10:31:00,17.6,8.8,29.77,NNW,338,21.9,25.1,68,0.00,,,0.00,WUHU216HW,2013-01-29 17:31:00,
2013-01-29 10:33:00,17.6,9.2,29.77,NNW,338,22.6,25.1,69,0.00,,,0.00,WUHU216HW,2013-01-29 17:33:00,
2013-01-29 10:35:00,17.6,8.6,29.78,NNW,338,27.3,27.3,67,0.00,,,0.00,WUHU216HW,2013-01-29 17:35:00,
2013-01-29 10:36:00,17.6,8.8,29.78,NNW,338,24.2,27.3,68,0.00,,,0.00,WUHU216HW,2013-01-29 17:36:00,
2013-01-29 10:38:00,17.5,9.4,29.78,NW,315,23.0,27.3,70,0.00,,,0.00,WUHU216HW,2013-01-29 17:38:00,
2013-01-29 10:40:00,17.6,9.5,29.78,NW,315,24.4,28.0,70,0.00,,,0.00,WUHU216HW,2013-01-29 17:40:00,
2013-01-29 10:41:00,17.5,9.0,29.78,NW,315,24.4,28.0,69,0.00,,,0.00,WUHU216HW,2013-01-29 17:41:00,
2013-01-29 10:44:00,17.3,8.8,29.78,NW,315,28.2,28.2,69,0.00,,,0.00,WUHU216HW,2013-01-29 17:44:00,
2013-01-29 10:45:00,17.1,8.6,29.78,NW,315,23.7,28.2,69,0.00,,,0.00,WUHU216HW,2013-01-29 17:45:00,
2013-01-29 10:46:00,17.1,8.6,29.78,NW,315,23.7,28.2,69,0.00,,,0.00,WUHU216HW,2013-01-29 17:46:00,
2013-01-29 10:49:00,16.9,7.8,29.78,NNW,338,20.8,28.2,67,0.00,,,0.00,WUHU216HW,2013-01-29 17:49:00,
2013-01-29 10:51:00,17.3,8.2,29.79,NW,315,25.3,28.2,67,0.00,,,0.00,WUHU216HW,2013-01-29 17:51:00,
2013-01-29 10:54:00,17.3,7.8,29.79,WNW,293,22.6,28.0,66,0.00,,,0.00,WUHU216HW,2013-01-29 17:54:00,
2013-01-29 10:56:00,17.1,7.7,29.78,NNW,338,25.7,28.2,66,0.00,,,0.00,WUHU216HW,2013-01-29 17:56:00,
2013-01-29 10:57:00,17.1,7.7,29.79,NW,315,27.7,28.2,66,0.00,,,0.00,WUHU216HW,2013-01-29 17:57:00,
2013-01-29 10:59:00,16.9,7.5,29.79,NW,315,20.8,28.2,66,0.00,,,0.00,WUHU216HW,2013-01-29 17:59:00,
2013-01-29 11:01:00,16.9,7.5,29.79,NNW,338,23.0,28.2,66,0.00,,,0.00,WUHU216HW,2013-01-29 18:01:00,
2013-01-29 11:03:00,16.9,7.5,29.79,NNW,338,23.5,28.2,66,0.00,,,0.00,WUHU216HW,2013-01-29 18:03:00,
2013-01-29 11:05:00,16.9,7.1,29.79,NNW,338,19.0,28.2,65,0.00,,,0.00,WUHU216HW,2013-01-29 18:05:00,
2013-01-29 11:06:00,16.7,6.9,29.79,NNW,338,25.1,27.7,65,0.00,,,0.00,WUHU216HW,2013-01-29 18:06:00,
2013-01-29 11:07:00,16.7,7.3,29.79,NNW,338,25.9,27.7,66,0.00,,,0.00,WUHU216HW,2013-01-29 18:07:00,
2013-01-29 11:08:00,16.6,7.5,29.79,NNW,338,24.4,27.1,67,0.00,,,0.00,WUHU216HW,2013-01-29 18:08:00,
2013-01-29 11:10:00,16.2,7.4,29.79,NNW,338,24.4,27.1,68,0.00,,,0.00,WUHU216HW,2013-01-29 18:10:00,
2013-01-29 11:11:00,16.0,7.2,29.79,NNW,338,20.8,27.1,68,0.00,,,0.00,WUHU216HW,2013-01-29 18:11:00,
2013-01-29 11:12:00,16.0,7.2,29.79,NNW,338,22.4,27.1,68,0.00,,,0.00,WUHU216HW,2013-01-29 18:12:00,
2013-01-29 11:14:00,16.0,7.2,29.80,NNW,338,20.6,25.9,68,0.00,,,0.00,WUHU216HW,2013-01-29 18:14:00,
2013-01-29 11:15:00,15.8,6.8,29.80,NNW,338,25.3,25.9,67,0.00,,,0.00,WUHU216HW,2013-01-29 18:15:00,
2013-01-29 11:16:00,15.8,7.4,29.80,North,0,16.3,25.9,69,0.00,,,0.00,WUHU216HW,2013-01-29 18:16:00,
2013-01-29 11:17:00,15.7,6.9,29.80,NNW,338,23.0,25.3,68,0.00,,,0.00,WUHU216HW,2013-01-29 18:17:00,
2013-01-29 11:19:00,15.5,7.1,29.80,NNW,338,25.7,25.7,69,0.00,,,0.00,WUHU216HW,2013-01-29 18:19:00,
2013-01-29 11:20:00,15.5,7.4,29.80,NNW,338,22.8,25.7,70,0.00,,,0.00,WUHU216HW,2013-01-29 18:20:00,
2013-01-29 11:21:00,15.5,7.8,29.80,NNW,338,21.0,25.7,71,0.00,,,0.00,WUHU216HW,2013-01-29 18:21:00,
2013-01-29 11:22:00,15.5,7.8,29.80,NNW,338,19.0,25.7,71,0.00,,,0.00,WUHU216HW,2013-01-29 18:22:00,
2013-01-29 11:24:00,15.5,7.4,29.80,NNW,338,26.4,26.4,70,0.00,,,0.00,WUHU216HW,2013-01-29 18:24:00,
2013-01-29 11:25:00,15.3,6.9,29.80,NNW,338,19.5,26.4,69,0.00,,,0.00,WUHU216HW,2013-01-29 18:25:00,
2013-01-29 11:27:00,15.3,7.3,29.80,NW,315,21.5,26.4,70,0.00,,,0.00,WUHU216HW,2013-01-29 18:27:00,
2013-01-29 11:29:00,15.3,6.9,29.81,NNW,338,22.1,26.4,69,0.00,,,0.00,WUHU216HW,2013-01-29 18:29:00,
2013-01-29 11:31:00,15.1,6.4,29.81,NW,315,22.4,26.4,68,0.00,,,0.00,WUHU216HW,2013-01-29 18:31:00,
2013-01-29 11:32:00,14.9,6.2,29.81,NNW,338,17.9,26.4,68,0.00,,,0.00,WUHU216HW,2013-01-29 18:32:00,
2013-01-29 11:34:00,14.8,6.1,29.80,NNW,338,18.8,24.4,68,0.00,,,0.00,WUHU216HW,2013-01-29 18:34:00,
2013-01-29 11:36:00,14.6,6.0,29.81,NNW,338,17.7,24.4,68,0.00,,,0.00,WUHU216HW,2013-01-29 18:36:00,
2013-01-29 11:37:00,14.6,6.0,29.81,NNW,338,16.3,24.4,68,0.00,,,0.00,WUHU216HW,2013-01-29 18:37:00,
2013-01-29 11:39:00,14.6,6.0,29.81,NNW,338,20.8,24.4,68,0.00,,,0.00,WUHU216HW,2013-01-29 18:39:00,
2013-01-29 11:41:00,14.4,6.1,29.81,NNW,338,18.6,23.3,69,0.00,,,0.00,WUHU216HW,2013-01-29 18:41:00,
2013-01-29 11:42:00,14.6,6.0,29.81,NNW,338,17.2,25.3,68,0.00,,,0.00,WUHU216HW,2013-01-29 18:42:00,
2013-01-29 11:44:00,14.4,6.1,29.81,NNW,338,15.0,25.3,69,0.00,,,0.00,WUHU216HW,2013-01-29 18:44:00,
2013-01-29 11:46:00,14.4,6.1,29.81,North,0,19.7,25.3,69,0.00,,,0.00,WUHU216HW,2013-01-29 18:46:00,
2013-01-29 11:47:00,14.0,6.1,29.81,NNW,338,15.7,25.3,70,0.00,,,0.00,WUHU216HW,2013-01-29 18:47:00,
2013-01-29 11:48:00,14.0,6.1,29.81,North,0,17.4,25.3,70,0.00,,,0.00,WUHU216HW,2013-01-29 18:48:00,
2013-01-29 11:49:00,13.7,5.8,29.81,North,0,17.4,25.3,70,0.00,,,0.00,WUHU216HW,2013-01-29 18:49:00,
2013-01-29 11:51:00,13.5,5.9,29.81,NNW,338,15.7,25.3,71,0.00,,,0.00,WUHU216HW,2013-01-29 18:51:00,
2013-01-29 11:53:00,13.3,5.4,29.81,NNW,338,22.4,23.7,70,0.00,,,0.00,WUHU216HW,2013-01-29 18:53:00,
2013-01-29 11:54:00,13.3,5.4,29.80,NNW,338,15.0,23.7,70,0.00,,,0.00,WUHU216HW,2013-01-29 18:54:00,
2013-01-29 11:56:00,13.3,5.7,29.80,North,0,19.2,24.4,71,0.00,,,0.00,WUHU216HW,2013-01-29 18:56:00,
2013-01-29 11:58:00,13.3,5.7,29.80,NNW,338,18.6,24.4,71,0.00,,,0.00,WUHU216HW,2013-01-29 18:58:00,
2013-01-29 11:59:00,13.3,5.4,29.80,NNW,338,22.6,24.4,70,0.00,,,0.00,WUHU216HW,2013-01-29 18:59:00,
2013-01-29 12:02:00,13.5,5.9,29.80,North,0,21.9,26.6,71,0.00,,,0.00,WUHU216HW,2013-01-29 19:02:00,
2013-01-29 12:03:00,13.7,6.0,29.80,NNW,338,21.9,26.6,71,0.00,,,0.00,WUHU216HW,2013-01-29 19:03:00,
2013-01-29 12:04:00,13.5,5.6,29.80,NNW,338,26.4,26.6,70,0.00,,,0.00,WUHU216HW,2013-01-29 19:04:00,
2013-01-29 12:07:00,13.7,5.8,29.80,NW,315,22.4,26.8,70,0.00,,,0.00,WUHU216HW,2013-01-29 19:07:00,
2013-01-29 12:08:00,13.3,5.4,29.80,NNW,338,18.3,26.8,70,0.00,,,0.00,WUHU216HW,2013-01-29 19:08:00,
2013-01-29 12:09:00,13.3,5.7,29.80,NNW,338,23.5,26.8,71,0.00,,,0.00,WUHU216HW,2013-01-29 19:09:00,
2013-01-29 12:12:00,13.3,5.7,29.80,NNW,338,21.5,26.8,71,0.00,,,0.00,WUHU216HW,2013-01-29 19:12:00,
2013-01-29 12:13:00,13.3,5.7,29.80,NNW,338,19.2,26.8,71,0.00,,,0.00,WUHU216HW,2013-01-29 19:13:00,
2013-01-29 12:15:00,13.5,5.6,29.81,North,0,15.9,26.8,70,0.00,,,0.00,WUHU216HW,2013-01-29 19:15:00,
2013-01-29 12:17:00,13.3,5.7,29.81,NNW,338,20.8,26.2,71,0.00,,,0.00,WUHU216HW,2013-01-29 19:17:00,
2013-01-29 12:18:00,13.5,5.6,29.81,North,0,18.3,26.2,70,0.00,,,0.00,WUHU216HW,2013-01-29 19:18:00,
2013-01-29 12:20:00,13.5,5.6,29.80,NNW,338,25.9,26.2,70,0.00,,,0.00,WUHU216HW,2013-01-29 19:20:00,
2013-01-29 12:22:00,13.3,5.7,29.81,NNW,338,24.4,25.9,71,0.00,,,0.00,WUHU216HW,2013-01-29 19:22:00,
2013-01-29 12:23:00,13.0,5.3,29.80,NNW,338,19.5,25.9,71,0.00,,,0.00,WUHU216HW,2013-01-29 19:23:00,
2013-01-29 12:25:00,13.0,5.3,29.80,NNW,338,19.2,25.9,71,0.00,,,0.00,WUHU216HW,2013-01-29 19:25:00,
2013-01-29 12:27:00,13.0,5.3,29.80,NNW,338,20.4,25.9,71,0.00,,,0.00,WUHU216HW,2013-01-29 19:27:00,
2013-01-29 12:28:00,13.0,5.3,29.80,NNW,338,19.2,25.9,71,0.00,,,0.00,WUHU216HW,2013-01-29 19:28:00,
2013-01-29 12:29:00,13.0,5.3,29.80,NNW,338,19.2,25.9,71,0.00,,,0.00,WUHU216HW,2013-01-29 19:29:00,
2013-01-29 12:30:00,13.0,5.6,29.81,North,0,17.9,24.8,72,0.00,,,0.00,WUHU216HW,2013-01-29 19:30:00,
2013-01-29 12:32:00,12.6,5.0,29.80,NNW,338,23.0,24.8,71,0.00,,,0.00,WUHU216HW,2013-01-29 19:32:00,
2013-01-29 12:33:00,12.6,5.0,29.81,NNW,338,23.5,25.9,71,0.00,,,0.00,WUHU216HW,2013-01-29 19:33:00,
2013-01-29 12:34:00,12.6,5.0,29.81,NNW,338,21.0,25.9,71,0.00,,,0.00,WUHU216HW,2013-01-29 19:34:00,
2013-01-29 12:35:00,12.6,5.0,29.81,North,0,22.1,26.4,71,0.00,,,0.00,WUHU216HW,2013-01-29 19:35:00,
2013-01-29 12:37:00,12.2,4.9,29.81,NNW,338,17.9,26.4,72,0.00,,,0.00,WUHU216HW,2013-01-29 19:37:00,
2013-01-29 12:39:00,12.1,4.4,29.81,NNW,338,23.7,26.4,71,0.00,,,0.00,WUHU216HW,2013-01-29 19:39:00,
2013-01-29 12:40:00,11.9,4.5,29.81,North,0,23.5,26.4,72,0.00,,,0.00,WUHU216HW,2013-01-29 19:40:00,
2013-01-29 12:42:00,11.7,4.3,29.80,North,0,23.0,26.4,72,0.00,,,0.00,WUHU216HW,2013-01-29 19:42:00,
2013-01-29 12:44:00,11.5,3.9,29.81,NNW,338,28.4,28.4,71,0.00,,,0.00,WUHU216HW,2013-01-29 19:44:00,
2013-01-29 12:45:00,11.5,4.1,29.81,NNW,338,28.2,28.4,72,0.00,,,0.00,WUHU216HW,2013-01-29 19:45:00,
2013-01-29 12:47:00,11.5,4.1,29.81,NNW,338,21.0,28.4,72,0.00,,,0.00,WUHU216HW,2013-01-29 19:47:00,
2013-01-29 12:49:00,11.7,4.3,29.81,NNW,338,23.5,29.1,72,0.00,,,0.00,WUHU216HW,2013-01-29 19:49:00,
2013-01-29 12:50:00,11.5,4.1,29.81,NW,315,26.4,29.1,72,0.00,,,0.00,WUHU216HW,2013-01-29 19:50:00,
2013-01-29 12:52:00,11.5,4.5,29.81,North,0,24.4,29.5,73,0.00,,,0.00,WUHU216HW,2013-01-29 19:52:00,
2013-01-29 12:54:00,11.5,4.5,29.81,North,0,27.3,29.5,73,0.00,,,0.00,WUHU216HW,2013-01-29 19:54:00,
2013-01-29 12:56:00,11.3,4.0,29.81,North,0,23.3,29.5,72,0.00,,,0.00,WUHU216HW,2013-01-29 19:56:00,
2013-01-29 12:57:00,11.5,4.1,29.81,NNW,338,25.9,29.5,72,0.00,,,0.00,WUHU216HW,2013-01-29 19:57:00,
2013-01-29 12:58:00,11.5,4.5,29.81,NNW,338,23.5,29.5,73,0.00,,,0.00,WUHU216HW,2013-01-29 19:58:00,
2013-01-29 12:59:00,11.5,4.5,29.81,NNW,338,18.3,29.5,73,0.00,,,0.00,WUHU216HW,2013-01-29 19:59:00,
2013-01-29 13:01:00,11.2,4.2,29.81,North,0,24.6,28.9,73,0.00,,,0.00,WUHU216HW,2013-01-29 20:01:00,
2013-01-29 13:02:00,11.2,4.2,29.82,NW,315,20.6,28.9,73,0.00,,,0.00,WUHU216HW,2013-01-29 20:02:00,
2013-01-29 13:03:00,11.2,4.2,29.81,NNW,338,23.0,28.9,73,0.00,,,0.00,WUHU216HW,2013-01-29 20:03:00,
2013-01-29 13:04:00,11.2,3.8,29.81,North,0,23.7,28.9,72,0.00,,,0.00,WUHU216HW,2013-01-29 20:04:00,
2013-01-29 13:06:00,11.0,4.0,29.81,NNW,338,25.5,28.9,73,0.00,,,0.00,WUHU216HW,2013-01-29 20:06:00,
2013-01-29 13:08:00,11.0,4.0,29.81,North,0,27.3,31.8,73,0.00,,,0.00,WUHU216HW,2013-01-29 20:08:00,
2013-01-29 13:10:00,10.8,3.8,29.82,NNW,338,20.1,31.8,73,0.00,,,0.00,WUHU216HW,2013-01-29 20:10:00,
2013-01-29 13:12:00,11.0,4.0,29.82,NNW,338,26.6,31.8,73,0.00,,,0.00,WUHU216HW,2013-01-29 20:12:00,
2013-01-29 13:13:00,10.8,3.4,29.82,NNW,338,24.4,31.8,72,0.00,,,0.00,WUHU216HW,2013-01-29 20:13:00,
2013-01-29 13:15:00,10.6,3.2,29.82,North,0,25.3,31.8,72,0.00,,,0.00,WUHU216HW,2013-01-29 20:15:00,
2013-01-29 13:17:00,10.4,3.4,29.82,NW,315,23.0,31.8,73,0.00,,,0.00,WUHU216HW,2013-01-29 20:17:00,
2013-01-29 13:18:00,10.4,3.4,29.82,NNW,338,26.6,30.2,73,0.00,,,0.00,WUHU216HW,2013-01-29 20:18:00,
2013-01-29 13:21:00,10.3,3.0,29.82,NNW,338,26.6,30.2,72,0.00,,,0.00,WUHU216HW,2013-01-29 20:21:00,
2013-01-29 13:22:00,10.1,2.8,29.82,NNW,338,23.9,30.2,72,0.00,,,0.00,WUHU216HW,2013-01-29 20:22:00,
2013-01-29 13:23:00,10.1,2.8,29.82,North,0,24.6,30.2,72,0.00,,,0.00,WUHU216HW,2013-01-29 20:23:00,
2013-01-29 13:24:00,10.1,2.8,29.82,North,0,17.4,30.2,72,0.00,,,0.00,WUHU216HW,2013-01-29 20:24:00,
2013-01-29 13:25:00,10.1,3.1,29.82,NNW,338,21.5,30.2,73,0.00,,,0.00,WUHU216HW,2013-01-29 20:25:00,
2013-01-29 13:27:00,10.1,3.1,29.82,NNW,338,19.2,30.2,73,0.00,,,0.00,WUHU216HW,2013-01-29 20:27:00,
2013-01-29 13:28:00,10.1,2.5,29.82,North,0,21.0,27.7,71,0.00,,,0.00,WUHU216HW,2013-01-29 20:28:00,
2013-01-29 13:29:00,10.1,2.5,29.82,NNW,338,24.2,26.6,71,0.00,,,0.00,WUHU216HW,2013-01-29 20:29:00,
2013-01-29 13:31:00,9.9,2.4,29.82,NNW,338,25.9,27.5,71,0.00,,,0.00,WUHU216HW,2013-01-29 20:31:00,
2013-01-29 13:32:00,9.9,2.6,29.82,NNW,338,19.5,28.9,72,0.00,,,0.00,WUHU216HW,2013-01-29 20:32:00,
2013-01-29 13:33:00,9.7,2.7,29.82,North,0,23.9,28.9,73,0.00,,,0.00,WUHU216HW,2013-01-29 20:33:00,
2013-01-29 13:34:00,9.9,2.9,29.82,NNW,338,22.8,28.9,73,0.00,,,0.00,WUHU216HW,2013-01-29 20:34:00,
2013-01-29 13:36:00,9.9,2.9,29.82,NNW,338,17.7,28.9,73,0.00,,,0.00,WUHU216HW,2013-01-29 20:36:00,
2013-01-29 13:37:00,9.9,2.6,29.82,NNW,338,28.4,28.9,72,0.00,,,0.00,WUHU216HW,2013-01-29 20:37:00,
2013-01-29 13:38:00,9.9,2.9,29.82,NNW,338,25.9,28.9,73,0.00,,,0.00,WUHU216HW,2013-01-29 20:38:00,
2013-01-29 13:39:00,9.7,2.7,29.82,NNW,338,21.3,28.9,73,0.00,,,0.00,WUHU216HW,2013-01-29 20:39:00,
2013-01-29 13:41:00,9.9,2.9,29.82,North,0,22.8,28.9,73,0.00,,,0.00,WUHU216HW,2013-01-29 20:41:00,
2013-01-29 13:42:00,9.9,2.9,29.82,North,0,25.5,28.4,73,0.00,,,0.00,WUHU216HW,2013-01-29 20:42:00,
2013-01-29 13:43:00,9.9,2.9,29.82,NNW,338,20.4,28.4,73,0.00,,,0.00,WUHU216HW,2013-01-29 20:43:00,
2013-01-29 13:44:00,9.7,2.7,29.82,North,0,23.0,28.4,73,0.00,,,0.00,WUHU216HW,2013-01-29 20:44:00,
2013-01-29 13:46:00,9.7,2.4,29.82,North,0,23.9,28.4,72,0.00,,,0.00,WUHU216HW,2013-01-29 20:46:00,
2013-01-29 13:47:00,9.9,2.9,29.82,NNW,338,21.5,28.4,73,0.00,,,0.00,WUHU216HW,2013-01-29 20:47:00,
2013-01-29 13:48:00,9.9,2.6,29.82,North,0,22.8,25.5,72,0.00,,,0.00,WUHU216HW,2013-01-29 20:48:00,
2013-01-29 13:50:00,9.9,2.6,29.82,NNW,338,23.5,29.1,72,0.00,,,0.00,WUHU216HW,2013-01-29 20:50:00,
2013-01-29 13:51:00,9.7,2.7,29.82,NNW,338,19.5,29.1,73,0.00,,,0.00,WUHU216HW,2013-01-29 20:51:00,
2013-01-29 13:52:00,9.5,2.6,29.82,NNW,338,23.7,29.1,73,0.00,,,0.00,WUHU216HW,2013-01-29 20:52:00,
2013-01-29 13:54:00,9.4,1.8,29.82,NNW,338,24.6,29.1,71,0.00,,,0.00,WUHU216HW,2013-01-29 20:54:00,
2013-01-29 13:55:00,9.5,2.6,29.82,North,0,20.8,29.1,73,0.00,,,0.00,WUHU216HW,2013-01-29 20:55:00,
2013-01-29 13:56:00,9.4,1.8,29.82,North,0,19.5,29.1,71,0.00,,,0.00,WUHU216HW,2013-01-29 20:56:00,
2013-01-29 13:57:00,9.5,2.6,29.82,North,0,24.4,29.1,73,0.00,,,0.00,WUHU216HW,2013-01-29 20:57:00,
2013-01-29 13:59:00,9.5,2.3,29.82,NNW,338,23.0,29.1,72,0.00,,,0.00,WUHU216HW,2013-01-29 20:59:00,
2013-01-29 14:00:00,9.5,2.0,29.82,North,0,29.5,29.5,71,0.00,,,0.00,WUHU216HW,2013-01-29 21:00:00,
2013-01-29 14:01:00,9.5,2.3,29.82,NNW,338,29.5,29.5,72,0.00,,,0.00,WUHU216HW,2013-01-29 21:01:00,
2013-01-29 14:02:00,9.5,2.0,29.82,North,0,26.2,29.5,71,0.00,,,0.00,WUHU216HW,2013-01-29 21:02:00,
2013-01-29 14:04:00,9.7,2.2,29.83,NNW,338,17.4,29.5,71,0.00,,,0.00,WUHU216HW,2013-01-29 21:04:00,
2013-01-29 14:05:00,9.4,1.5,29.83,NNW,338,22.4,29.5,70,0.00,,,0.00,WUHU216HW,2013-01-29 21:05:00,
2013-01-29 14:07:00,9.4,1.5,29.83,NNW,338,22.1,29.5,70,0.00,,,0.00,WUHU216HW,2013-01-29 21:07:00,
2013-01-29 14:09:00,9.5,2.0,29.83,NNW,338,21.3,29.5,71,0.00,,,0.00,WUHU216HW,2013-01-29 21:09:00,
2013-01-29 14:10:00,9.4,1.5,29.83,NNW,338,18.8,29.5,70,0.00,,,0.00,WUHU216HW,2013-01-29 21:10:00,
2013-01-29 14:12:00,9.4,1.5,29.83,NNW,338,23.5,26.8,70,0.00,,,0.00,WUHU216HW,2013-01-29 21:12:00,
2013-01-29 14:14:00,9.0,1.3,29.83,North,0,22.8,26.8,70,0.00,,,0.00,WUHU216HW,2013-01-29 21:14:00,
2013-01-29 14:16:00,9.0,1.3,29.83,North,0,19.0,25.9,70,0.00,,,0.00,WUHU216HW,2013-01-29 21:16:00,
2013-01-29 14:17:00,8.8,1.1,29.83,North,0,15.9,25.9,70,0.00,,,0.00,WUHU216HW,2013-01-29 21:17:00,
2013-01-29 14:19:00,8.6,0.9,29.84,NNW,338,17.2,25.9,70,0.00,,,0.00,WUHU216HW,2013-01-29 21:19:00,
2013-01-29 14:21:00,8.6,0.9,29.84,North,0,21.0,25.9,70,0.00,,,0.00,WUHU216HW,2013-01-29 21:21:00,
2013-01-29 14:22:00,8.6,0.9,29.84,North,0,20.6,25.9,70,0.00,,,0.00,WUHU216HW,2013-01-29 21:22:00,
2013-01-29 14:25:00,8.6,0.9,29.84,NNW,338,20.1,25.5,70,0.00,,,0.00,WUHU216HW,2013-01-29 21:25:00,
2013-01-29 14:26:00,8.5,0.7,29.84,NNW,338,21.7,25.5,70,0.00,,,0.00,WUHU216HW,2013-01-29 21:26:00,
2013-01-29 14:27:00,8.5,0.7,29.84,NNW,338,22.4,25.5,70,0.00,,,0.00,WUHU216HW,2013-01-29 21:27:00,
2013-01-29 14:30:00,8.5,0.7,29.84,NNW,338,18.1,23.5,70,0.00,,,0.00,WUHU216HW,2013-01-29 21:30:00,
2013-01-29 14:31:00,8.5,0.7,29.84,NNW,338,17.2,23.0,70,0.00,,,0.00,WUHU216HW,2013-01-29 21:31:00,
2013-01-29 14:32:00,8.6,0.9,29.84,NNW,338,16.8,23.0,70,0.00,,,0.00,WUHU216HW,2013-01-29 21:32:00,
2013-01-29 14:33:00,8.6,0.9,29.84,NNW,338,11.4,23.0,70,0.00,,,0.00,WUHU216HW,2013-01-29 21:33:00,
2013-01-29 14:35:00,8.6,0.5,29.84,NNW,338,20.1,23.5,69,0.00,,,0.00,WUHU216HW,2013-01-29 21:35:00,
2013-01-29 14:36:00,8.6,0.5,29.84,NNW,338,22.4,23.5,69,0.00,,,0.00,WUHU216HW,2013-01-29 21:36:00,
2013-01-29 14:37:00,8.6,0.5,29.85,NNW,338,17.9,23.5,69,0.00,,,0.00,WUHU216HW,2013-01-29 21:37:00,
2013-01-29 14:38:00,8.8,0.7,29.85,NNW,338,24.4,24.4,69,0.00,,,0.00,WUHU216HW,2013-01-29 21:38:00,
2013-01-29 14:40:00,8.8,1.1,29.85,NNW,338,16.6,24.4,70,0.00,,,0.00,WUHU216HW,2013-01-29 21:40:00,
2013-01-29 14:41:00,9.0,1.3,29.85,NNW,338,11.6,24.4,70,0.00,,,0.00,WUHU216HW,2013-01-29 21:41:00,
2013-01-29 14:42:00,9.0,1.3,29.85,NNW,338,17.9,24.4,70,0.00,,,0.00,WUHU216HW,2013-01-29 21:42:00,
2013-01-29 14:43:00,9.0,1.3,29.85,NNW,338,13.9,24.4,70,0.00,,,0.00,WUHU216HW,2013-01-29 21:43:00,
2013-01-29 14:45:00,9.2,1.1,29.85,NW,315,19.7,24.4,69,0.00,,,0.00,WUHU216HW,2013-01-29 21:45:00,
2013-01-29 14:47:00,9.4,0.9,29.85,North,0,21.0,24.4,68,0.00,,,0.00,WUHU216HW,2013-01-29 21:47:00,
2013-01-29 14:48:00,9.4,0.9,29.85,NW,315,16.3,24.4,68,0.00,,,0.00,WUHU216HW,2013-01-29 21:48:00,
2013-01-29 14:51:00,9.4,0.9,29.85,NNW,338,14.8,21.0,68,0.00,,,0.00,WUHU216HW,2013-01-29 21:51:00,
2013-01-29 14:52:00,9.4,0.9,29.85,NNW,338,12.5,21.0,68,0.00,,,0.00,WUHU216HW,2013-01-29 21:52:00,
2013-01-29 14:53:00,9.4,0.9,29.85,NNW,338,10.7,21.0,68,0.00,,,0.00,WUHU216HW,2013-01-29 21:53:00,
2013-01-29 14:56:00,9.7,1.2,29.86,NNW,338,17.2,21.0,68,0.00,,,0.00,WUHU216HW,2013-01-29 21:56:00,
2013-01-29 14:57:00,9.7,1.2,29.86,NNW,338,20.1,21.0,68,0.00,,,0.00,WUHU216HW,2013-01-29 21:57:00,
2013-01-29 14:58:00,9.7,1.2,29.86,NNW,338,12.5,20.1,68,0.00,,,0.00,WUHU216HW,2013-01-29 21:58:00,
2013-01-29 14:59:00,9.7,0.9,29.86,NNW,338,14.1,20.1,67,0.00,,,0.00,WUHU216HW,2013-01-29 21:59:00,
2013-01-29 15:01:00,9.5,1.1,29.86,NNW,338,18.8,20.1,68,0.00,,,0.00,WUHU216HW,2013-01-29 22:01:00,
2013-01-29 15:03:00,9.4,0.9,29.86,NNW,338,15.0,20.1,68,0.00,,,0.00,WUHU216HW,2013-01-29 22:03:00,
2013-01-29 15:04:00,9.2,0.4,29.86,NNW,338,16.1,21.3,67,0.00,,,0.00,WUHU216HW,2013-01-29 22:04:00,
2013-01-29 15:06:00,9.4,0.9,29.87,NNW,338,14.8,21.3,68,0.00,,,0.00,WUHU216HW,2013-01-29 22:06:00,
2013-01-29 15:08:00,9.4,0.5,29.86,NNW,338,22.4,22.4,67,0.00,,,0.00,WUHU216HW,2013-01-29 22:08:00,
2013-01-29 15:09:00,9.2,0.4,29.86,North,0,18.1,22.4,67,0.00,,,0.00,WUHU216HW,2013-01-29 22:09:00,
2013-01-29 15:11:00,9.0,0.2,29.86,NNW,338,20.4,22.4,67,0.00,,,0.00,WUHU216HW,2013-01-29 22:11:00,
2013-01-29 15:13:00,8.8,0.4,29.86,NNW,338,16.3,22.4,68,0.00,,,0.00,WUHU216HW,2013-01-29 22:13:00,
2013-01-29 15:14:00,8.6,0.2,29.86,North,0,13.0,22.4,68,0.00,,,0.00,WUHU216HW,2013-01-29 22:14:00,
2013-01-29 15:16:00,8.5,0.4,29.87,NNW,338,12.5,22.4,69,0.00,,,0.00,WUHU216HW,2013-01-29 22:16:00,
2013-01-29 15:18:00,8.5,0.0,29.86,NNW,338,19.0,21.0,68,0.00,,,0.00,WUHU216HW,2013-01-29 22:18:00,
2013-01-29 15:19:00,8.5,0.0,29.86,NNW,338,17.4,21.0,68,0.00,,,0.00,WUHU216HW,2013-01-29 22:19:00,
2013-01-29 15:21:00,8.6,0.2,29.87,NNW,338,20.8,21.5,68,0.00,,,0.00,WUHU216HW,2013-01-29 22:21:00,
2013-01-29 15:23:00,8.5,0.0,29.87,NNW,338,15.7,21.5,68,0.00,,,0.00,WUHU216HW,2013-01-29 22:23:00,
2013-01-29 15:25:00,8.6,0.2,29.87,NNW,338,12.3,21.5,68,0.00,,,0.00,WUHU216HW,2013-01-29 22:25:00,
2013-01-29 15:26:00,8.6,0.2,29.87,NW,315,15.7,21.5,68,0.00,,,0.00,WUHU216HW,2013-01-29 22:26:00,
2013-01-29 15:28:00,8.8,0.4,29.87,NW,315,18.6,21.5,68,0.00,,,0.00,WUHU216HW,2013-01-29 22:28:00,
2013-01-29 15:29:00,9.0,0.5,29.87,NNW,338,14.8,21.5,68,0.00,,,0.00,WUHU216HW,2013-01-29 22:29:00,
2013-01-29 15:30:00,9.0,0.5,29.87,NNW,338,15.7,21.5,68,0.00,,,0.00,WUHU216HW,2013-01-29 22:30:00,
2013-01-29 15:31:00,9.0,0.5,29.87,NNW,338,15.0,21.5,68,0.00,,,0.00,WUHU216HW,2013-01-29 22:31:00,
2013-01-29 15:34:00,9.0,0.5,29.87,NNW,338,15.4,21.0,68,0.00,,,0.00,WUHU216HW,2013-01-29 22:34:00,
2013-01-29 15:35:00,8.8,0.4,29.87,NNW,338,16.1,21.0,68,0.00,,,0.00,WUHU216HW,2013-01-29 22:35:00,
2013-01-29 15:37:00,8.8,0.4,29.87,NNW,338,20.1,21.0,68,0.00,,,0.00,WUHU216HW,2013-01-29 22:37:00,
2013-01-29 15:39:00,8.8,0.4,29.87,NNW,338,14.1,20.1,68,0.00,,,0.00,WUHU216HW,2013-01-29 22:39:00,
2013-01-29 15:40:00,8.6,0.2,29.87,NNW,338,11.2,20.1,68,0.00,,,0.00,WUHU216HW,2013-01-29 22:40:00,
2013-01-29 15:42:00,8.6,0.5,29.87,North,0,9.2,20.1,69,0.00,,,0.00,WUHU216HW,2013-01-29 22:42:00,
2013-01-29 15:44:00,8.8,1.1,29.87,NNW,338,11.4,20.1,70,0.00,,,0.00,WUHU216HW,2013-01-29 22:44:00,
2013-01-29 15:45:00,8.8,0.7,29.88,NNW,338,14.3,20.1,69,0.00,,,0.00,WUHU216HW,2013-01-29 22:45:00,
2013-01-29 15:47:00,9.0,0.5,29.88,NNW,338,9.8,16.6,68,0.00,,,0.00,WUHU216HW,2013-01-29 22:47:00,
2013-01-29 15:49:00,9.2,0.7,29.88,NNW,338,16.1,18.1,68,0.00,,,0.00,WUHU216HW,2013-01-29 22:49:00,
2013-01-29 15:51:00,9.2,0.4,29.88,NNW,338,16.3,18.1,67,0.00,,,0.00,WUHU216HW,2013-01-29 22:51:00,
2013-01-29 15:52:00,9.2,0.4,29.87,NW,315,14.8,18.1,67,0.00,,,0.00,WUHU216HW,2013-01-29 22:52:00,
2013-01-29 15:54:00,9.2,0.4,29.87,NNW,338,15.0,18.1,67,0.00,,,0.00,WUHU216HW,2013-01-29 22:54:00,
2013-01-29 15:55:00,9.4,0.5,29.87,NNW,338,17.9,18.1,67,0.00,,,0.00,WUHU216HW,2013-01-29 22:55:00,
2013-01-29 15:56:00,9.4,0.5,29.87,NNW,338,17.9,18.1,67,0.00,,,0.00,WUHU216HW,2013-01-29 22:56:00,
2013-01-29 15:57:00,9.4,0.5,29.87,NNW,338,13.4,18.1,67,0.00,,,0.00,WUHU216HW,2013-01-29 22:57:00,
2013-01-29 16:00:00,9.4,0.5,29.87,NW,315,13.4,18.8,67,0.00,,,0.00,WUHU216HW,2013-01-29 23:00:00,
2013-01-29 16:01:00,9.2,0.4,29.87,NW,315,16.1,18.8,67,0.00,,,0.00,WUHU216HW,2013-01-29 23:01:00,
2013-01-29 16:02:00,9.2,0.4,29.87,NNW,338,13.6,18.8,67,0.00,,,0.00,WUHU216HW,2013-01-29 23:02:00,
2013-01-29 16:05:00,9.4,0.9,29.88,NW,315,14.1,18.8,68,0.00,,,0.00,WUHU216HW,2013-01-29 23:05:00,
2013-01-29 16:06:00,9.4,0.9,29.88,NNW,338,13.6,18.8,68,0.00,,,0.00,WUHU216HW,2013-01-29 23:06:00,
2013-01-29 16:07:00,9.4,0.5,29.87,NW,315,17.9,18.8,67,0.00,,,0.00,WUHU216HW,2013-01-29 23:07:00,
2013-01-29 16:10:00,9.5,0.7,29.88,NNW,338,17.7,18.6,67,0.00,,,0.00,WUHU216HW,2013-01-29 23:10:00,
2013-01-29 16:11:00,9.5,0.7,29.88,NNW,338,14.8,18.6,67,0.00,,,0.00,WUHU216HW,2013-01-29 23:11:00,
2013-01-29 16:12:00,9.7,0.9,29.88,NNW,338,15.2,18.6,67,0.00,,,0.00,WUHU216HW,2013-01-29 23:12:00,
2013-01-29 16:15:00,9.7,0.5,29.88,NNW,338,15.9,18.6,66,0.00,,,0.00,WUHU216HW,2013-01-29 23:15:00,
2013-01-29 16:16:00,9.5,0.4,29.88,NNW,338,17.9,18.6,66,0.00,,,0.00,WUHU216HW,2013-01-29 23:16:00,
2013-01-29 16:17:00,9.5,0.4,29.87,NNW,338,16.6,18.1,66,0.00,,,0.00,WUHU216HW,2013-01-29 23:17:00,
2013-01-29 16:20:00,9.4,0.2,29.87,NW,315,17.2,18.1,66,0.00,,,0.00,WUHU216HW,2013-01-29 23:20:00,
2013-01-29 16:21:00,9.4,0.5,29.87,NNW,338,15.7,18.1,67,0.00,,,0.00,WUHU216HW,2013-01-29 23:21:00,
2013-01-29 16:22:00,9.4,0.5,29.87,NW,315,15.0,18.1,67,0.00,,,0.00,WUHU216HW,2013-01-29 23:22:00,
2013-01-29 16:25:00,9.4,0.5,29.87,NNW,338,15.0,17.9,67,0.00,,,0.00,WUHU216HW,2013-01-29 23:25:00,
2013-01-29 16:26:00,9.4,0.5,29.87,NNW,338,15.7,17.9,67,0.00,,,0.00,WUHU216HW,2013-01-29 23:26:00,
2013-01-29 16:27:00,9.4,0.5,29.87,NW,315,13.9,17.2,67,0.00,,,0.00,WUHU216HW,2013-01-29 23:27:00,
2013-01-29 16:30:00,9.2,0.4,29.87,NW,315,12.1,17.2,67,0.00,,,0.00,WUHU216HW,2013-01-29 23:30:00,
2013-01-29 16:31:00,9.2,0.4,29.87,NW,315,13.9,17.2,67,0.00,,,0.00,WUHU216HW,2013-01-29 23:31:00,
2013-01-29 16:32:00,9.2,0.4,29.87,NNW,338,12.3,17.2,67,0.00,,,0.00,WUHU216HW,2013-01-29 23:32:00,
2013-01-29 16:33:00,9.2,0.4,29.87,NNW,338,15.0,17.2,67,0.00,,,0.00,WUHU216HW,2013-01-29 23:33:00,
2013-01-29 16:35:00,9.2,0.7,29.87,NW,315,12.1,17.2,68,0.00,,,0.00,WUHU216HW,2013-01-29 23:35:00,
2013-01-29 16:37:00,9.0,0.5,29.87,NW,315,8.7,17.2,68,0.00,,,0.00,WUHU216HW,2013-01-29 23:37:00,
2013-01-29 16:38:00,9.0,0.5,29.87,NW,315,13.4,17.2,68,0.00,,,0.00,WUHU216HW,2013-01-29 23:38:00,
2013-01-29 16:41:00,9.0,0.5,29.87,NNW,338,15.7,16.8,68,0.00,,,0.00,WUHU216HW,2013-01-29 23:41:00,
2013-01-29 16:42:00,9.0,0.5,29.87,NNW,338,15.9,17.0,68,0.00,,,0.00,WUHU216HW,2013-01-29 23:42:00,
2013-01-29 16:43:00,9.0,0.5,29.87,NW,315,15.0,17.0,68,0.00,,,0.00,WUHU216HW,2013-01-29 23:43:00,
2013-01-29 16:46:00,9.0,0.5,29.87,NNW,338,14.3,17.0,68,0.00,,,0.00,WUHU216HW,2013-01-29 23:46:00,
2013-01-29 16:47:00,9.0,0.5,29.87,NW,315,9.6,17.0,68,0.00,,,0.00,WUHU216HW,2013-01-29 23:47:00,
2013-01-29 16:48:00,8.8,0.4,29.87,NW,315,12.1,17.0,68,0.00,,,0.00,WUHU216HW,2013-01-29 23:48:00,
2013-01-29 16:51:00,8.8,0.7,29.87,NNW,338,9.8,17.0,69,0.00,,,0.00,WUHU216HW,2013-01-29 23:51:00,
2013-01-29 16:53:00,8.8,0.4,29.87,NW,315,12.1,15.0,68,0.00,,,0.00,WUHU216HW,2013-01-29 23:53:00,
2013-01-29 16:56:00,9.0,0.9,29.87,NW,315,9.2,14.8,69,0.00,,,0.00,WUHU216HW,2013-01-29 23:56:00,
2013-01-29 16:58:00,9.0,0.5,29.87,NW,315,13.6,16.3,68,0.00,,,0.00,WUHU216HW,2013-01-29 23:58:00,
2013-01-29 17:01:00,9.0,0.5,29.87,NW,315,13.9,16.3,68,0.00,,,0.00,WUHU216HW,2013-01-30 00:01:00,
2013-01-29 17:03:00,8.8,0.4,29.87,NNW,338,13.4,16.3,68,0.00,,,0.00,WUHU216HW,2013-01-30 00:03:00,
2013-01-29 17:06:00,8.6,0.2,29.87,NNW,338,12.8,16.3,68,0.00,,,0.00,WUHU216HW,2013-01-30 00:06:00,
2013-01-29 17:08:00,8.6,0.2,29.87,NW,315,13.6,15.9,68,0.00,,,0.00,WUHU216HW,2013-01-30 00:08:00,
2013-01-29 17:12:00,8.5,0.4,29.87,NW,315,10.7,15.4,69,0.00,,,0.00,WUHU216HW,2013-01-30 00:12:00,
2013-01-29 17:13:00,8.5,0.4,29.87,NNW,338,11.0,15.4,69,0.00,,,0.00,WUHU216HW,2013-01-30 00:13:00,
2013-01-29 17:14:00,8.5,0.4,29.87,NW,315,10.1,15.4,69,0.00,,,0.00,WUHU216HW,2013-01-30 00:14:00,
2013-01-29 17:17:00,8.6,0.5,29.87,NNW,338,9.8,15.4,69,0.00,,,0.00,WUHU216HW,2013-01-30 00:17:00,
2013-01-29 17:18:00,8.6,0.5,29.87,NNW,338,9.8,14.3,69,0.00,,,0.00,WUHU216HW,2013-01-30 00:18:00,
2013-01-29 17:19:00,8.6,0.5,29.87,NNW,338,12.1,13.4,69,0.00,,,0.00,WUHU216HW,2013-01-30 00:19:00,
2013-01-29 17:22:00,8.5,0.4,29.87,NW,315,13.4,14.3,69,0.00,,,0.00,WUHU216HW,2013-01-30 00:22:00,
2013-01-29 17:24:00,8.5,0.4,29.87,NNW,338,10.1,14.3,69,0.00,,,0.00,WUHU216HW,2013-01-30 00:24:00,
2013-01-29 17:27:00,8.3,0.2,29.87,NW,315,10.7,14.3,69,0.00,,,0.00,WUHU216HW,2013-01-30 00:27:00,
2013-01-29 17:29:00,8.3,0.5,29.87,NNW,338,11.4,14.3,70,0.00,,,0.00,WUHU216HW,2013-01-30 00:29:00,
2013-01-29 17:32:00,8.3,0.5,29.87,NNW,338,11.0,13.4,70,0.00,,,0.00,WUHU216HW,2013-01-30 00:32:00,
2013-01-29 17:34:00,8.3,0.5,29.87,NNW,338,9.6,13.0,70,0.00,,,0.00,WUHU216HW,2013-01-30 00:34:00,
2013-01-29 17:37:00,8.3,0.5,29.87,NNW,338,9.8,13.0,70,0.00,,,0.00,WUHU216HW,2013-01-30 00:37:00,
2013-01-29 17:39:00,8.3,0.5,29.87,NW,315,7.6,12.1,70,0.00,,,0.00,WUHU216HW,2013-01-30 00:39:00,
2013-01-29 17:40:00,8.3,0.5,29.87,NW,315,5.8,12.1,70,0.00,,,0.00,WUHU216HW,2013-01-30 00:40:00,
2013-01-29 17:42:00,8.1,0.4,29.87,NNW,338,9.6,11.9,70,0.00,,,0.00,WUHU216HW,2013-01-30 00:42:00,
2013-01-29 17:44:00,8.1,0.4,29.87,NW,315,9.2,11.4,70,0.00,,,0.00,WUHU216HW,2013-01-30 00:44:00,
2013-01-29 17:45:00,8.1,0.4,29.87,NNW,338,9.2,11.4,70,0.00,,,0.00,WUHU216HW,2013-01-30 00:45:00,
2013-01-29 17:47:00,8.1,0.4,29.87,NW,315,7.6,11.0,70,0.00,,,0.00,WUHU216HW,2013-01-30 00:47:00,
2013-01-29 17:49:00,8.3,0.5,29.88,NNW,338,6.0,11.0,70,0.00,,,0.00,WUHU216HW,2013-01-30 00:49:00,
2013-01-29 17:50:00,8.3,0.5,29.88,NW,315,8.7,11.0,70,0.00,,,0.00,WUHU216HW,2013-01-30 00:50:00,
2013-01-29 17:53:00,8.3,0.5,29.87,NNW,338,10.7,11.0,70,0.00,,,0.00,WUHU216HW,2013-01-30 00:53:00,
2013-01-29 17:54:00,8.1,0.4,29.87,NW,315,7.8,10.7,70,0.00,,,0.00,WUHU216HW,2013-01-30 00:54:00,
2013-01-29 17:55:00,8.1,0.4,29.87,NW,315,7.8,10.7,70,0.00,,,0.00,WUHU216HW,2013-01-30 00:55:00,
2013-01-29 17:58:00,8.1,0.4,29.87,NNW,338,6.9,10.7,70,0.00,,,0.00,WUHU216HW,2013-01-30 00:58:00,
2013-01-29 17:59:00,7.9,0.2,29.87,NNW,338,7.4,10.7,70,0.00,,,0.00,WUHU216HW,2013-01-30 00:59:00,
2013-01-29 18:00:00,7.9,0.2,29.87,North,0,8.7,10.7,70,0.00,,,0.00,WUHU216HW,2013-01-30 01:00:00,
2013-01-29 18:03:00,7.7,0.0,29.87,NNW,338,7.6,10.7,70,0.00,,,0.00,WUHU216HW,2013-01-30 01:03:00,
2013-01-29 18:04:00,7.7,0.0,29.87,NNW,338,6.0,10.3,70,0.00,,,0.00,WUHU216HW,2013-01-30 01:04:00,
2013-01-29 18:05:00,7.7,0.0,29.87,NNW,338,5.4,10.3,70,0.00,,,0.00,WUHU216HW,2013-01-30 01:05:00,
2013-01-29 18:08:00,7.6,-0.2,29.87,NNW,338,5.8,10.3,70,0.00,,,0.00,WUHU216HW,2013-01-30 01:08:00,
2013-01-29 18:09:00,7.6,-0.2,29.87,North,0,6.7,10.3,70,0.00,,,0.00,WUHU216HW,2013-01-30 01:09:00,
2013-01-29 18:10:00,7.6,0.1,29.87,NNW,338,8.3,10.3,71,0.00,,,0.00,WUHU216HW,2013-01-30 01:10:00,
2013-01-29 18:11:00,7.6,0.1,29.87,NNW,338,7.2,10.3,71,0.00,,,0.00,WUHU216HW,2013-01-30 01:11:00,
2013-01-29 18:13:00,7.4,-0.4,29.88,NW,315,5.6,8.9,70,0.00,,,0.00,WUHU216HW,2013-01-30 01:13:00,
2013-01-29 18:15:00,7.4,-0.1,29.87,NNW,338,7.6,9.4,71,0.00,,,0.00,WUHU216HW,2013-01-30 01:15:00,
2013-01-29 18:16:00,7.4,-0.4,29.87,North,0,9.4,9.4,70,0.00,,,0.00,WUHU216HW,2013-01-30 01:16:00,
2013-01-29 18:18:00,7.2,-0.5,29.88,NNW,338,5.6,9.4,70,0.00,,,0.00,WUHU216HW,2013-01-30 01:18:00,
2013-01-29 18:20:00,7.2,-0.5,29.88,North,0,2.9,9.4,70,0.00,,,0.00,WUHU216HW,2013-01-30 01:20:00,
2013-01-29 18:21:00,7.2,-0.5,29.88,NW,315,2.9,9.4,70,0.00,,,0.00,WUHU216HW,2013-01-30 01:21:00,
2013-01-29 18:24:00,7.2,-0.5,29.88,North,0,5.1,9.4,70,0.00,,,0.00,WUHU216HW,2013-01-30 01:24:00,
2013-01-29 18:25:00,7.2,-0.3,29.88,NNW,338,5.4,9.4,71,0.00,,,0.00,WUHU216HW,2013-01-30 01:25:00,
2013-01-29 18:26:00,7.2,-0.5,29.87,NNW,338,4.7,8.3,70,0.00,,,0.00,WUHU216HW,2013-01-30 01:26:00,
2013-01-29 18:29:00,7.2,-0.3,29.87,NNW,338,4.7,6.9,71,0.00,,,0.00,WUHU216HW,2013-01-30 01:29:00,
2013-01-29 18:30:00,7.2,-0.3,29.87,NW,315,6.3,6.9,71,0.00,,,0.00,WUHU216HW,2013-01-30 01:30:00,
2013-01-29 18:31:00,7.2,-0.3,29.87,NW,315,3.8,6.9,71,0.00,,,0.00,WUHU216HW,2013-01-30 01:31:00,
2013-01-29 18:34:00,7.2,-0.5,29.87,NW,315,5.1,6.9,70,0.00,,,0.00,WUHU216HW,2013-01-30 01:34:00,
2013-01-29 18:35:00,7.4,-0.4,29.87,NNW,338,3.8,6.3,70,0.00,,,0.00,WUHU216HW,2013-01-30 01:35:00,
2013-01-29 18:36:00,7.4,-0.4,29.87,NNW,338,3.4,6.3,70,0.00,,,0.00,WUHU216HW,2013-01-30 01:36:00,
2013-01-29 18:39:00,7.4,-0.4,29.87,NW,315,2.2,6.3,70,0.00,,,0.00,WUHU216HW,2013-01-30 01:39:00,
2013-01-29 18:40:00,7.4,-0.4,29.87,WNW,293,2.5,5.6,70,0.00,,,0.00,WUHU216HW,2013-01-30 01:40:00,
2013-01-29 18:41:00,7.4,-0.4,29.87,West,270,1.8,5.4,70,0.00,,,0.00,WUHU216HW,2013-01-30 01:41:00,
2013-01-29 18:42:00,7.4,-0.4,29.87,WNW,293,3.1,5.4,70,0.00,,,0.00,WUHU216HW,2013-01-30 01:42:00,
2013-01-29 18:44:00,7.4,-0.4,29.87,WNW,293,2.0,4.9,70,0.00,,,0.00,WUHU216HW,2013-01-30 01:44:00,
2013-01-29 18:45:00,7.4,-0.4,29.87,WNW,293,0.4,4.7,70,0.00,,,0.00,WUHU216HW,2013-01-30 01:45:00,
2013-01-29 18:46:00,7.4,-0.4,29.87,WNW,293,0.2,3.6,70,0.00,,,0.00,WUHU216HW,2013-01-30 01:46:00,
2013-01-29 18:47:00,7.4,-0.4,29.87,WNW,293,0.0,3.6,70,0.00,,,0.00,WUHU216HW,2013-01-30 01:47:00,
2013-01-29 18:49:00,7.4,-0.4,29.87,WNW,293,0.4,3.6,70,0.00,,,0.00,WUHU216HW,2013-01-30 01:49:00,
2013-01-29 18:50:00,7.4,-0.4,29.87,WNW,293,0.0,3.6,70,0.00,,,0.00,WUHU216HW,2013-01-30 01:50:00,
2013-01-29 18:51:00,7.4,-0.4,29.87,WNW,293,0.0,3.6,70,0.00,,,0.00,WUHU216HW,2013-01-30 01:51:00,
2013-01-29 18:52:00,7.4,-0.4,29.87,WNW,293,0.0,2.5,70,0.00,,,0.00,WUHU216HW,2013-01-30 01:52:00,
2013-01-29 18:54:00,7.4,-0.4,29.87,East,90,1.1,2.0,70,0.00,,,0.00,WUHU216HW,2013-01-30 01:54:00,
2013-01-29 18:55:00,7.6,0.1,29.87,NE,45,2.5,2.5,71,0.00,,,0.00,WUHU216HW,2013-01-30 01:55:00,
2013-01-29 18:56:00,7.6,0.1,29.87,NE,45,1.3,2.5,71,0.00,,,0.00,WUHU216HW,2013-01-30 01:56:00,
2013-01-29 18:57:00,7.6,0.4,29.87,NE,45,1.1,2.5,72,0.00,,,0.00,WUHU216HW,2013-01-30 01:57:00,
2013-01-29 18:59:00,7.6,0.1,29.86,SE,135,2.5,2.5,71,0.00,,,0.00,WUHU216HW,2013-01-30 01:59:00,
2013-01-29 19:01:00,7.6,0.1,29.86,East,90,1.3,2.5,71,0.00,,,0.00,WUHU216HW,2013-01-30 02:01:00,
2013-01-29 19:02:00,7.6,0.7,29.86,NNE,23,2.5,2.5,73,0.00,,,0.00,WUHU216HW,2013-01-30 02:02:00,
2013-01-29 19:05:00,7.6,0.1,29.86,NE,45,3.8,4.3,71,0.00,,,0.00,WUHU216HW,2013-01-30 02:05:00,
2013-01-29 19:06:00,7.6,0.4,29.87,NE,45,1.8,4.3,72,0.00,,,0.00,WUHU216HW,2013-01-30 02:06:00,
2013-01-29 19:07:00,7.6,0.1,29.86,NNE,23,3.4,4.3,71,0.00,,,0.00,WUHU216HW,2013-01-30 02:07:00,
2013-01-29 19:10:00,7.6,-0.2,29.86,NNE,23,2.0,4.3,70,0.00,,,0.00,WUHU216HW,2013-01-30 02:10:00,
2013-01-29 19:11:00,7.6,-0.2,29.86,NE,45,2.5,4.3,70,0.00,,,0.00,WUHU216HW,2013-01-30 02:11:00,
2013-01-29 19:12:00,7.7,0.0,29.85,ENE,68,2.7,4.3,70,0.00,,,0.00,WUHU216HW,2013-01-30 02:12:00,
2013-01-29 19:15:00,7.7,0.3,29.85,NE,45,1.1,3.8,71,0.00,,,0.00,WUHU216HW,2013-01-30 02:15:00,
2013-01-29 19:16:00,7.9,0.5,29.86,ENE,68,0.2,3.8,71,0.00,,,0.00,WUHU216HW,2013-01-30 02:16:00,
2013-01-29 19:17:00,7.9,0.5,29.86,ENE,68,0.4,3.8,71,0.00,,,0.00,WUHU216HW,2013-01-30 02:17:00,
2013-01-29 19:20:00,8.3,0.8,29.86,NE,45,1.1,2.9,71,0.00,,,0.00,WUHU216HW,2013-01-30 02:20:00,
2013-01-29 19:22:00,8.3,0.8,29.86,NE,45,1.8,2.9,71,0.00,,,0.00,WUHU216HW,2013-01-30 02:22:00,
2013-01-29 19:25:00,8.3,0.8,29.86,ENE,68,0.9,2.5,71,0.00,,,0.00,WUHU216HW,2013-01-30 02:25:00,
2013-01-29 19:27:00,8.3,0.8,29.86,ENE,68,0.0,2.5,71,0.00,,,0.00,WUHU216HW,2013-01-30 02:27:00,
2013-01-29 19:28:00,8.5,1.0,29.86,ENE,68,0.2,2.5,71,0.00,,,0.00,WUHU216HW,2013-01-30 02:28:00,
2013-01-29 19:30:00,8.6,1.2,29.86,ESE,113,0.7,2.2,71,0.00,,,0.00,WUHU216HW,2013-01-30 02:30:00,
2013-01-29 19:32:00,8.6,1.2,29.86,ESE,113,1.1,1.8,71,0.00,,,0.00,WUHU216HW,2013-01-30 02:32:00,
2013-01-29 19:33:00,8.6,1.2,29.86,ESE,113,0.4,1.6,71,0.00,,,0.00,WUHU216HW,2013-01-30 02:33:00,
2013-01-29 19:35:00,8.8,1.4,29.85,SE,135,4.5,4.5,71,0.00,,,0.00,WUHU216HW,2013-01-30 02:35:00,
2013-01-29 19:37:00,9.0,1.8,29.85,SSE,158,4.7,4.9,72,0.00,,,0.00,WUHU216HW,2013-01-30 02:37:00,
2013-01-29 19:38:00,9.0,1.8,29.85,SSE,158,2.5,4.9,72,0.00,,,0.00,WUHU216HW,2013-01-30 02:38:00,
2013-01-29 19:40:00,9.0,2.1,29.85,ESE,113,5.6,6.7,73,0.00,,,0.00,WUHU216HW,2013-01-30 02:40:00,
2013-01-29 19:42:00,9.2,2.3,29.85,SE,135,8.5,8.5,73,0.00,,,0.00,WUHU216HW,2013-01-30 02:42:00,
2013-01-29 19:43:00,9.2,2.3,29.85,SE,135,7.4,8.5,73,0.00,,,0.00,WUHU216HW,2013-01-30 02:43:00,
2013-01-29 19:45:00,9.4,2.4,29.85,SSE,158,6.3,9.8,73,0.00,,,0.00,WUHU216HW,2013-01-30 02:45:00,
2013-01-29 19:47:00,9.4,2.4,29.85,SE,135,6.7,9.8,73,0.00,,,0.00,WUHU216HW,2013-01-30 02:47:00,
2013-01-29 19:48:00,9.5,2.6,29.85,SE,135,7.4,9.8,73,0.00,,,0.00,WUHU216HW,2013-01-30 02:48:00,
2013-01-29 19:50:00,9.5,2.6,29.84,SE,135,8.5,9.8,73,0.00,,,0.00,WUHU216HW,2013-01-30 02:50:00,
2013-01-29 19:52:00,9.5,2.6,29.84,SSE,158,8.5,10.5,73,0.00,,,0.00,WUHU216HW,2013-01-30 02:52:00,
2013-01-29 19:53:00,9.7,2.7,29.84,SSE,158,9.2,10.5,73,0.00,,,0.00,WUHU216HW,2013-01-30 02:53:00,
2013-01-29 19:55:00,9.7,3.1,29.84,SE,135,8.1,10.5,74,0.00,,,0.00,WUHU216HW,2013-01-30 02:55:00,
2013-01-29 19:57:00,9.7,3.1,29.84,SSE,158,7.4,10.5,74,0.00,,,0.00,WUHU216HW,2013-01-30 02:57:00,
2013-01-29 19:58:00,9.7,3.1,29.84,SE,135,7.2,10.5,74,0.00,,,0.00,WUHU216HW,2013-01-30 02:58:00,
2013-01-29 20:00:00,9.7,3.1,29.84,SE,135,11.2,11.2,74,0.00,,,0.00,WUHU216HW,2013-01-30 03:00:00,
2013-01-29 20:02:00,9.7,3.1,29.84,SE,135,8.7,11.2,74,0.00,,,0.00,WUHU216HW,2013-01-30 03:02:00,
2013-01-29 20:03:00,9.7,3.1,29.84,SE,135,9.2,11.2,74,0.00,,,0.00,WUHU216HW,2013-01-30 03:03:00,
2013-01-29 20:06:00,9.7,3.1,29.84,SSE,158,6.7,11.2,74,0.00,,,0.00,WUHU216HW,2013-01-30 03:06:00,
2013-01-29 20:07:00,9.7,3.1,29.84,SE,135,7.8,11.2,74,0.00,,,0.00,WUHU216HW,2013-01-30 03:07:00,
2013-01-29 20:08:00,9.7,3.1,29.84,SE,135,8.5,11.2,74,0.00,,,0.00,WUHU216HW,2013-01-30 03:08:00,
2013-01-29 20:11:00,9.7,2.7,29.84,SE,135,7.4,10.5,73,0.00,,,0.00,WUHU216HW,2013-01-30 03:11:00,
2013-01-29 20:13:00,9.7,2.7,29.84,SE,135,7.6,10.5,73,0.00,,,0.00,WUHU216HW,2013-01-30 03:13:00,
2013-01-29 20:14:00,9.7,2.7,29.84,SE,135,8.5,10.5,73,0.00,,,0.00,WUHU216HW,2013-01-30 03:14:00,
2013-01-29 20:16:00,9.7,2.7,29.84,SE,135,7.6,9.6,73,0.00,,,0.00,WUHU216HW,2013-01-30 03:16:00,
2013-01-29 20:18:00,9.7,2.7,29.84,ESE,113,4.9,9.6,73,0.00,,,0.00,WUHU216HW,2013-01-30 03:18:00,
2013-01-29 20:19:00,9.7,2.7,29.85,SSE,158,6.3,9.6,73,0.00,,,0.00,WUHU216HW,2013-01-30 03:19:00,
2013-01-29 20:21:00,9.7,2.7,29.84,SE,135,7.4,9.2,73,0.00,,,0.00,WUHU216HW,2013-01-30 03:21:00,
2013-01-29 20:23:00,9.7,2.7,29.84,SSE,158,6.9,9.4,73,0.00,,,0.00,WUHU216HW,2013-01-30 03:23:00,
2013-01-29 20:24:00,9.9,2.9,29.84,SE,135,7.6,9.4,73,0.00,,,0.00,WUHU216HW,2013-01-30 03:24:00,
2013-01-29 20:26:00,9.9,2.9,29.84,SE,135,8.3,9.4,73,0.00,,,0.00,WUHU216HW,2013-01-30 03:26:00,
2013-01-29 20:28:00,9.9,2.9,29.85,SE,135,6.3,9.4,73,0.00,,,0.00,WUHU216HW,2013-01-30 03:28:00,
2013-01-29 20:29:00,9.9,2.9,29.85,SE,135,6.9,9.4,73,0.00,,,0.00,WUHU216HW,2013-01-30 03:29:00,
2013-01-29 20:31:00,9.9,2.9,29.85,SE,135,6.7,9.4,73,0.00,,,0.00,WUHU216HW,2013-01-30 03:31:00,
2013-01-29 20:33:00,9.9,2.9,29.85,SSE,158,5.6,8.5,73,0.00,,,0.00,WUHU216HW,2013-01-30 03:33:00,
2013-01-29 20:34:00,9.9,2.9,29.85,SSE,158,5.4,8.5,73,0.00,,,0.00,WUHU216HW,2013-01-30 03:34:00,
2013-01-29 20:36:00,10.1,3.1,29.85,SSE,158,4.0,8.5,73,0.00,,,0.00,WUHU216HW,2013-01-30 03:36:00,
2013-01-29 20:38:00,10.1,3.1,29.85,SSE,158,5.6,8.5,73,0.00,,,0.00,WUHU216HW,2013-01-30 03:38:00,
2013-01-29 20:39:00,10.1,3.1,29.85,SSE,158,7.6,8.5,73,0.00,,,0.00,WUHU216HW,2013-01-30 03:39:00,
2013-01-29 20:41:00,10.3,3.3,29.85,SSE,158,5.8,7.8,73,0.00,,,0.00,WUHU216HW,2013-01-30 03:41:00,
2013-01-29 20:44:00,10.3,3.3,29.85,SE,135,6.3,7.8,73,0.00,,,0.00,WUHU216HW,2013-01-30 03:44:00,
2013-01-29 20:46:00,10.3,3.5,29.85,SSE,158,5.4,7.8,74,0.00,,,0.00,WUHU216HW,2013-01-30 03:46:00,
2013-01-29 20:49:00,10.3,3.5,29.85,SSE,158,3.8,7.8,74,0.00,,,0.00,WUHU216HW,2013-01-30 03:49:00,
2013-01-29 20:52:00,10.3,3.5,29.85,SSE,158,7.2,7.6,74,0.00,,,0.00,WUHU216HW,2013-01-30 03:52:00,
2013-01-29 20:54:00,10.4,3.7,29.85,SSE,158,4.7,7.6,74,0.00,,,0.00,WUHU216HW,2013-01-30 03:54:00,
2013-01-29 20:57:00,10.4,3.7,29.85,SSE,158,4.9,7.6,74,0.00,,,0.00,WUHU216HW,2013-01-30 03:57:00,
2013-01-29 20:59:00,10.4,3.7,29.84,SSE,158,6.7,7.6,74,0.00,,,0.00,WUHU216HW,2013-01-30 03:59:00,
2013-01-29 21:02:00,10.4,3.7,29.84,South,180,5.1,7.4,74,0.00,,,0.00,WUHU216HW,2013-01-30 04:02:00,
2013-01-29 21:04:00,10.4,3.4,29.84,SSE,158,5.6,7.4,73,0.00,,,0.00,WUHU216HW,2013-01-30 04:04:00,
2013-01-29 21:05:00,10.4,3.4,29.84,SSE,158,3.8,7.4,73,0.00,,,0.00,WUHU216HW,2013-01-30 04:05:00,
2013-01-29 21:07:00,10.4,3.4,29.84,SSE,158,4.7,7.4,73,0.00,,,0.00,WUHU216HW,2013-01-30 04:07:00,
2013-01-29 21:09:00,10.4,3.4,29.84,SSE,158,6.7,6.9,73,0.00,,,0.00,WUHU216HW,2013-01-30 04:09:00,
2013-01-29 21:10:00,10.4,3.4,29.83,SSE,158,7.6,7.6,73,0.00,,,0.00,WUHU216HW,2013-01-30 04:10:00,
2013-01-29 21:12:00,10.4,3.4,29.83,SSE,158,8.5,9.2,73,0.00,,,0.00,WUHU216HW,2013-01-30 04:12:00,
2013-01-29 21:14:00,10.4,3.4,29.83,South,180,6.0,9.2,73,0.00,,,0.00,WUHU216HW,2013-01-30 04:14:00,
2013-01-29 21:15:00,10.4,3.4,29.83,South,180,6.0,9.2,73,0.00,,,0.00,WUHU216HW,2013-01-30 04:15:00,
2013-01-29 21:16:00,10.4,3.4,29.84,South,180,6.7,9.2,73,0.00,,,0.00,WUHU216HW,2013-01-30 04:16:00,
2013-01-29 21:17:00,10.4,3.4,29.83,SSE,158,5.8,9.2,73,0.00,,,0.00,WUHU216HW,2013-01-30 04:17:00,
2013-01-29 21:20:00,10.4,3.4,29.83,South,180,4.9,9.2,73,0.00,,,0.00,WUHU216HW,2013-01-30 04:20:00,
2013-01-29 21:21:00,10.4,3.4,29.83,SSE,158,7.4,9.2,73,0.00,,,0.00,WUHU216HW,2013-01-30 04:21:00,
2013-01-29 21:22:00,10.4,3.4,29.83,SE,135,6.3,8.5,73,0.00,,,0.00,WUHU216HW,2013-01-30 04:22:00,
2013-01-29 21:25:00,10.4,3.7,29.82,SSE,158,6.9,8.7,74,0.00,,,0.00,WUHU216HW,2013-01-30 04:25:00,
2013-01-29 21:26:00,10.6,3.9,29.83,SSE,158,5.8,8.7,74,0.00,,,0.00,WUHU216HW,2013-01-30 04:26:00,
2013-01-29 21:27:00,10.4,3.7,29.82,SSE,158,7.2,8.7,74,0.00,,,0.00,WUHU216HW,2013-01-30 04:27:00,
2013-01-29 21:30:00,10.6,3.6,29.82,SSE,158,8.5,9.2,73,0.00,,,0.00,WUHU216HW,2013-01-30 04:30:00,
2013-01-29 21:31:00,10.6,3.6,29.82,SSE,158,7.6,9.2,73,0.00,,,0.00,WUHU216HW,2013-01-30 04:31:00,
2013-01-29 21:32:00,10.6,3.6,29.82,SSE,158,4.9,9.2,73,0.00,,,0.00,WUHU216HW,2013-01-30 04:32:00,
2013-01-29 21:35:00,10.6,3.9,29.82,SE,135,3.1,9.2,74,0.00,,,0.00,WUHU216HW,2013-01-30 04:35:00,
2013-01-29 21:36:00,10.6,3.9,29.82,SSE,158,3.8,9.2,74,0.00,,,0.00,WUHU216HW,2013-01-30 04:36:00,
2013-01-29 21:37:00,10.6,3.9,29.82,SSE,158,6.7,9.2,74,0.00,,,0.00,WUHU216HW,2013-01-30 04:37:00,
2013-01-29 21:40:00,10.6,3.6,29.82,South,180,6.3,9.2,73,0.00,,,0.00,WUHU216HW,2013-01-30 04:40:00,
2013-01-29 21:41:00,10.6,3.6,29.82,South,180,7.8,9.2,73,0.00,,,0.00,WUHU216HW,2013-01-30 04:41:00,
2013-01-29 21:42:00,10.6,3.6,29.82,SSE,158,6.9,9.2,73,0.00,,,0.00,WUHU216HW,2013-01-30 04:42:00,
2013-01-29 21:45:00,10.6,3.2,29.82,SE,135,5.4,9.2,72,0.00,,,0.00,WUHU216HW,2013-01-30 04:45:00,
2013-01-29 21:46:00,10.6,3.2,29.82,SSE,158,4.5,9.2,72,0.00,,,0.00,WUHU216HW,2013-01-30 04:46:00,
2013-01-29 21:47:00,10.8,3.8,29.82,SSE,158,3.4,9.2,73,0.00,,,0.00,WUHU216HW,2013-01-30 04:47:00,
2013-01-29 21:50:00,10.8,3.8,29.82,SSE,158,5.4,7.8,73,0.00,,,0.00,WUHU216HW,2013-01-30 04:50:00,
2013-01-29 21:51:00,10.8,3.8,29.82,SE,135,4.0,7.8,73,0.00,,,0.00,WUHU216HW,2013-01-30 04:51:00,
2013-01-29 21:52:00,10.8,4.1,29.82,SSE,158,6.0,7.2,74,0.00,,,0.00,WUHU216HW,2013-01-30 04:52:00,
2013-01-29 21:55:00,10.8,3.8,29.82,SE,135,5.4,6.9,73,0.00,,,0.00,WUHU216HW,2013-01-30 04:55:00,
2013-01-29 21:56:00,10.8,3.8,29.82,SE,135,5.4,6.9,73,0.00,,,0.00,WUHU216HW,2013-01-30 04:56:00,
2013-01-29 21:57:00,10.8,3.8,29.82,SSE,158,5.6,6.9,73,0.00,,,0.00,WUHU216HW,2013-01-30 04:57:00,
2013-01-29 22:02:00,10.8,4.1,29.82,SE,135,3.8,6.9,74,0.00,,,0.00,WUHU216HW,2013-01-30 05:02:00,
2013-01-29 22:03:00,11.0,4.5,29.82,SE,135,5.6,6.7,75,0.00,,,0.00,WUHU216HW,2013-01-30 05:03:00,
2013-01-29 22:07:00,11.0,5.0,29.82,ESE,113,2.0,6.9,77,0.00,,,0.00,WUHU216HW,2013-01-30 05:07:00,
2013-01-29 22:08:00,10.8,4.9,29.82,ESE,113,4.5,6.9,77,0.00,,,0.00,WUHU216HW,2013-01-30 05:08:00,
2013-01-29 22:09:00,10.8,4.9,29.82,ESE,113,4.9,6.9,77,0.00,,,0.00,WUHU216HW,2013-01-30 05:09:00,
2013-01-29 22:12:00,10.8,4.9,29.82,ESE,113,3.8,6.9,77,0.00,,,0.00,WUHU216HW,2013-01-30 05:12:00,
2013-01-29 22:13:00,10.8,4.9,29.82,SE,135,2.2,6.9,77,0.00,,,0.00,WUHU216HW,2013-01-30 05:13:00,
2013-01-29 22:14:00,10.8,4.9,29.82,ESE,113,2.0,6.9,77,0.00,,,0.00,WUHU216HW,2013-01-30 05:14:00,
2013-01-29 22:17:00,10.8,4.9,29.81,SE,135,4.3,5.4,77,0.00,,,0.00,WUHU216HW,2013-01-30 05:17:00,
2013-01-29 22:18:00,10.6,5.1,29.81,ESE,113,6.5,6.5,78,0.00,,,0.00,WUHU216HW,2013-01-30 05:18:00,
2013-01-29 22:19:00,10.6,5.1,29.81,ESE,113,5.8,6.5,78,0.00,,,0.00,WUHU216HW,2013-01-30 05:19:00,
2013-01-29 22:22:00,10.6,4.7,29.82,SE,135,1.8,6.5,77,0.00,,,0.00,WUHU216HW,2013-01-30 05:22:00,
2013-01-29 22:23:00,10.4,4.5,29.82,ESE,113,4.7,6.5,77,0.00,,,0.00,WUHU216HW,2013-01-30 05:23:00,
2013-01-29 22:24:00,10.4,4.5,29.82,ESE,113,4.7,6.5,77,0.00,,,0.00,WUHU216HW,2013-01-30 05:24:00,
2013-01-29 22:28:00,10.4,4.9,29.81,SE,135,4.7,6.5,78,0.00,,,0.00,WUHU216HW,2013-01-30 05:28:00,
2013-01-29 22:29:00,10.4,4.9,29.81,SE,135,4.3,5.8,78,0.00,,,0.00,WUHU216HW,2013-01-30 05:29:00,
2013-01-29 22:30:00,10.4,4.9,29.81,ESE,113,2.5,5.8,78,0.00,,,0.00,WUHU216HW,2013-01-30 05:30:00,
2013-01-29 22:33:00,10.4,4.9,29.81,ESE,113,3.6,5.8,78,0.00,,,0.00,WUHU216HW,2013-01-30 05:33:00,
2013-01-29 22:34:00,10.4,4.9,29.81,SE,135,3.8,5.8,78,0.00,,,0.00,WUHU216HW,2013-01-30 05:34:00,
2013-01-29 22:35:00,10.4,4.9,29.81,ESE,113,4.5,5.4,78,0.00,,,0.00,WUHU216HW,2013-01-30 05:35:00,
2013-01-29 22:38:00,10.3,5.0,29.81,ESE,113,4.7,5.4,79,0.00,,,0.00,WUHU216HW,2013-01-30 05:38:00,
2013-01-29 22:39:00,10.3,4.7,29.81,SE,135,6.0,6.0,78,0.00,,,0.00,WUHU216HW,2013-01-30 05:39:00,
2013-01-29 22:40:00,10.3,4.7,29.81,SE,135,4.7,6.0,78,0.00,,,0.00,WUHU216HW,2013-01-30 05:40:00,
2013-01-29 22:43:00,10.3,4.7,29.81,SE,135,5.6,6.0,78,0.00,,,0.00,WUHU216HW,2013-01-30 05:43:00,
2013-01-29 22:44:00,10.3,4.7,29.81,ESE,113,3.6,6.0,78,0.00,,,0.00,WUHU216HW,2013-01-30 05:44:00,
2013-01-29 22:45:00,10.3,4.7,29.81,SE,135,6.0,6.0,78,0.00,,,0.00,WUHU216HW,2013-01-30 05:45:00,
2013-01-29 22:48:00,10.3,4.7,29.81,ESE,113,2.2,6.0,78,0.00,,,0.00,WUHU216HW,2013-01-30 05:48:00,
2013-01-29 22:49:00,10.3,4.7,29.81,ESE,113,3.4,6.0,78,0.00,,,0.00,WUHU216HW,2013-01-30 05:49:00,
2013-01-29 22:50:00,10.4,4.9,29.81,ESE,113,2.7,6.0,78,0.00,,,0.00,WUHU216HW,2013-01-30 05:50:00,
2013-01-29 22:54:00,10.4,4.9,29.81,SE,135,6.7,6.7,78,0.00,,,0.00,WUHU216HW,2013-01-30 05:54:00,
2013-01-29 22:55:00,10.4,5.1,29.81,SE,135,6.9,7.6,79,0.00,,,0.00,WUHU216HW,2013-01-30 05:55:00,
2013-01-29 22:59:00,10.4,5.1,29.81,SE,135,4.7,7.6,79,0.00,,,0.00,WUHU216HW,2013-01-30 05:59:00,
2013-01-29 23:01:00,10.4,5.1,29.81,SE,135,7.4,7.6,79,0.00,,,0.00,WUHU216HW,2013-01-30 06:01:00,
2013-01-29 23:04:00,10.6,5.3,29.81,SE,135,4.9,7.6,79,0.00,,,0.00,WUHU216HW,2013-01-30 06:04:00,
2013-01-29 23:06:00,10.6,5.3,29.81,SSW,203,6.3,7.4,79,0.00,,,0.00,WUHU216HW,2013-01-30 06:06:00,
2013-01-29 23:09:00,10.6,5.6,29.80,South,180,5.1,8.3,80,0.00,,,0.00,WUHU216HW,2013-01-30 06:09:00,
2013-01-29 23:11:00,10.6,5.6,29.80,SSE,158,4.5,8.3,80,0.00,,,0.00,WUHU216HW,2013-01-30 06:11:00,
2013-01-29 23:14:00,10.6,5.6,29.79,SE,135,7.6,9.2,80,0.00,,,0.00,WUHU216HW,2013-01-30 06:14:00,
2013-01-29 23:16:00,10.6,5.6,29.79,SSE,158,4.9,9.2,80,0.00,,,0.00,WUHU216HW,2013-01-30 06:16:00,
2013-01-29 23:19:00,10.6,5.6,29.79,SSE,158,8.1,9.2,80,0.00,,,0.00,WUHU216HW,2013-01-30 06:19:00,
2013-01-29 23:20:00,10.6,5.6,29.79,SSE,158,8.3,9.2,80,0.00,,,0.00,WUHU216HW,2013-01-30 06:20:00,
2013-01-29 23:21:00,10.6,5.6,29.79,SSE,158,5.8,9.2,80,0.00,,,0.00,WUHU216HW,2013-01-30 06:21:00,
2013-01-29 23:24:00,10.6,5.6,29.79,SSE,158,5.6,8.3,80,0.00,,,0.00,WUHU216HW,2013-01-30 06:24:00,
2013-01-29 23:25:00,10.6,5.6,29.79,SSE,158,8.1,8.3,80,0.00,,,0.00,WUHU216HW,2013-01-30 06:25:00,
2013-01-29 23:26:00,10.8,5.8,29.79,South,180,5.1,8.3,80,0.00,,,0.00,WUHU216HW,2013-01-30 06:26:00,
2013-01-29 23:29:00,10.6,5.6,29.79,South,180,6.9,8.3,80,0.00,,,0.00,WUHU216HW,2013-01-30 06:29:00,
2013-01-29 23:30:00,10.8,5.8,29.79,SSE,158,7.6,8.1,80,0.00,,,0.00,WUHU216HW,2013-01-30 06:30:00,
2013-01-29 23:31:00,10.8,5.8,29.79,SSE,158,6.3,8.1,80,0.00,,,0.00,WUHU216HW,2013-01-30 06:31:00,
2013-01-29 23:35:00,10.8,5.8,29.79,SSW,203,6.3,8.3,80,0.00,,,0.00,WUHU216HW,2013-01-30 06:35:00,
2013-01-29 23:36:00,10.8,5.8,29.79,SSE,158,5.4,8.3,80,0.00,,,0.00,WUHU216HW,2013-01-30 06:36:00,
2013-01-29 23:40:00,10.8,5.8,29.79,SW,225,8.7,8.9,80,0.00,,,0.00,WUHU216HW,2013-01-30 06:40:00,
2013-01-29 23:41:00,11.0,5.9,29.79,South,180,6.7,8.9,80,0.00,,,0.00,WUHU216HW,2013-01-30 06:41:00,
2013-01-29 23:42:00,11.0,5.9,29.79,South,180,8.7,8.9,80,0.00,,,0.00,WUHU216HW,2013-01-30 06:42:00,
2013-01-29 23:45:00,11.2,6.1,29.79,SSE,158,8.9,8.9,80,0.00,,,0.00,WUHU216HW,2013-01-30 06:45:00,
2013-01-29 23:46:00,11.2,6.1,29.79,South,180,8.9,9.6,80,0.00,,,0.00,WUHU216HW,2013-01-30 06:46:00,
2013-01-29 23:47:00,11.3,6.0,29.79,SSE,158,9.2,10.5,79,0.00,,,0.00,WUHU216HW,2013-01-30 06:47:00,
2013-01-29 23:50:00,11.5,6.2,29.79,SSE,158,9.4,11.0,79,0.00,,,0.00,WUHU216HW,2013-01-30 06:50:00,
2013-01-29 23:51:00,11.7,6.1,29.79,South,180,6.9,11.0,78,0.00,,,0.00,WUHU216HW,2013-01-30 06:51:00,
2013-01-29 23:52:00,11.7,6.1,29.79,SSW,203,6.9,11.0,78,0.00,,,0.00,WUHU216HW,2013-01-30 06:52:00,
2013-01-29 23:55:00,11.9,5.9,29.79,SSE,158,9.6,11.0,77,0.00,,,0.00,WUHU216HW,2013-01-30 06:55:00,
2013-01-29 23:56:00,11.9,5.9,29.78,SSE,158,11.4,11.6,77,0.00,,,0.00,WUHU216HW,2013-01-30 06:56:00,
2013-01-29 23:57:00,12.1,6.1,29.78,SSE,158,7.8,11.6,77,0.00,,,0.00,WUHU216HW,2013-01-30 06:57:00,